Observation data for Goodnight on 05/25/2019      Previous  Date  Next       Current Mesonet Observations  Soil Data  Daily Summary Page  Observations in Plain Language
KGO1 250500Z 13005KT 16/16 A2999 RMK A01 T01560156  RH  100%=      5-min Rain = 0
KGO1 250501Z 13005KT 16/16 A2999 RMK A01 T01560156  RH  100%=      5-min Rain = 0
KGO1 250502Z 13005KT 16/16 A2999 RMK A01 T01560156  RH  100%=      5-min Rain = 0
KGO1 250503Z 14006KT 16/16 A30 RMK A01 T01560156  RH  100%=      5-min Rain = 0
KGO1 250504Z 14006KT 16/16 A30 RMK A01 T01560156  RH  100%=      5-min Rain = 0
KGO1 250505Z 14004KT 16/16 A30 RMK A01 T01560156  RH  100%=      5-min Rain = 0
KGO1 250506Z 14004KT 16/16 A2999 RMK A01 T01560156  RH  100%=      5-min Rain = 0
KGO1 250507Z 13004KT 16/16 A2999 RMK A01 T01550155  RH  100%=      5-min Rain = 0
KGO1 250508Z 12004KT 16/16 A2999 RMK A01 T01550155  RH  100%=      5-min Rain = 0
KGO1 250509Z 12004KT 16/16 A2999 RMK A01 T01550155  RH  100%=      5-min Rain = 0
KGO1 250510Z 13003KT 16/16 A2999 RMK A01 T01550155  RH  100%=      5-min Rain = 0
KGO1 250511Z 13003KT 16/16 A2999 RMK A01 T01550155  RH  100%=      5-min Rain = 0
KGO1 250512Z 13004KT 16/16 A2999 RMK A01 T01550155  RH  100%=      5-min Rain = 0
KGO1 250513Z 13004KT 16/16 A2999 RMK A01 T01550155  RH  100%=      5-min Rain = 0
KGO1 250514Z 13004KT 16/16 A2999 RMK A01 T01550155  RH  100%=      5-min Rain = 0
KGO1 250515Z 13004KT 16/16 A2999 RMK A01 T01550155  RH  100%=      5-min Rain = 0
KGO1 250516Z 13003KT 16/16 A2999 RMK A01 T01550155  RH  100%=      5-min Rain = 0
KGO1 250517Z 13003KT 15/15 A2999 RMK A01 T01540154  RH  100%=      5-min Rain = 0
KGO1 250518Z 13003KT 15/15 A2999 RMK A01 T01540154  RH  100%=      5-min Rain = 0
KGO1 250519Z 13003KT 15/15 A2999 RMK A01 T01540154  RH  100%=      5-min Rain = 0
KGO1 250520Z 12004KT 15/15 A2999 RMK A01 T01540154  RH  100%=      5-min Rain = 0
KGO1 250521Z 12004KT 15/15 A30 RMK A01 T01530153  RH  100%=      5-min Rain = 0
KGO1 250522Z 13004KT 15/15 A30 RMK A01 T01520153  RH  100%=      5-min Rain = 0
KGO1 250523Z 13003KT 15/15 A30 RMK A01 T01520153  RH  100%=      5-min Rain = 0
KGO1 250524Z 13003KT 15/15 A30 RMK A01 T01530153  RH  100%=      5-min Rain = 0
KGO1 250525Z 13002KT 15/15 A30 RMK A01 T01530153  RH  100%=      5-min Rain = 0
KGO1 250526Z 13002KT 15/15 A30 RMK A01 T01530153  RH  100%=      5-min Rain = 0
KGO1 250527Z 13002KT 15/15 A30 RMK A01 T01520152  RH  100%=      5-min Rain = 0
KGO1 250528Z 12002KT 15/15 A30 RMK A01 T01520152  RH  100%=      5-min Rain = 0
KGO1 250529Z 11002KT 15/15 A30 RMK A01 T01520152  RH  100%=      5-min Rain = 0
KGO1 250530Z 12002KT 15/15 A30 RMK A01 T01520152  RH  100%=      5-min Rain = 0
KGO1 250531Z 13001KT 15/15 A30 RMK A01 T01510151  RH  100%=      5-min Rain = 0
KGO1 250532Z 14001KT 15/15 A30 RMK A01 T01510151  RH  100%=      5-min Rain = 0
KGO1 250533Z 14002KT 15/15 A30 RMK A01 T01510151  RH  100%=      5-min Rain = 0
KGO1 250534Z 13002KT 15/15 A30 RMK A01 T01510151  RH  100%=      5-min Rain = 0
KGO1 250535Z 13003KT 15/15 A30 RMK A01 T01510151  RH  100%=      5-min Rain = 0
KGO1 250536Z 13003KT 15/15 A30 RMK A01 T01510151  RH  100%=      5-min Rain = 0
KGO1 250537Z 13003KT 15/15 A30 RMK A01 T01500150  RH  100%=      5-min Rain = 0
KGO1 250538Z 12003KT 15/15 A30 RMK A01 T01490149  RH  100%=      5-min Rain = 0
KGO1 250539Z 12003KT 15/15 A30 RMK A01 T01490149  RH  100%=      5-min Rain = 0
KGO1 250540Z 12003KT 15/15 A30 RMK A01 T01490149  RH  100%=      5-min Rain = 0
KGO1 250541Z 12003KT 15/15 A30 RMK A01 T01490149  RH  100%=      5-min Rain = 0
KGO1 250542Z 12003KT 15/15 A30 RMK A01 T01490149  RH  100%=      5-min Rain = 0
KGO1 250543Z 13003KT 15/15 A30 RMK A01 T01480148  RH  100%=      5-min Rain = 0
KGO1 250544Z 13003KT 15/15 A30 RMK A01 T01480148  RH  100%=      5-min Rain = 0
KGO1 250545Z 14003KT 15/15 A30 RMK A01 T01480148  RH  100%=      5-min Rain = 0
KGO1 250546Z 15003KT 15/15 A30 RMK A01 T01470147  RH  100%=      5-min Rain = 0
KGO1 250547Z 15003KT 15/15 A30 RMK A01 T01470147  RH  100%=      5-min Rain = 0
KGO1 250548Z 15002KT 15/15 A30 RMK A01 T01480148  RH  100%=      5-min Rain = 0
KGO1 250549Z 16002KT 15/15 A30 RMK A01 T01480148  RH  100%=      5-min Rain = 0
KGO1 250550Z 16002KT 15/15 A30 RMK A01 T01480148  RH  100%=      5-min Rain = 0
KGO1 250551Z 15002KT 15/15 A30 RMK A01 T01490149  RH  100%=      5-min Rain = 0
KGO1 250552Z 16003KT 15/15 A30 RMK A01 T01490149  RH  100%=      5-min Rain = 0
KGO1 250553Z 15003KT 15/15 A30 RMK A01 T01490149  RH  100%=      5-min Rain = 0
KGO1 250554Z 15003KT 15/15 A30 RMK A01 T01490149  RH  100%=      5-min Rain = 0
KGO1 250555Z 15003KT 15/15 A30 RMK A01 T01490149  RH  100%=      5-min Rain = 0
KGO1 250556Z 14003KT 15/15 A30 RMK A01 T01480149  RH  100%=      5-min Rain = 0
KGO1 250557Z 14004KT 15/15 A30 RMK A01 T01480148  RH  100%=      5-min Rain = 0
KGO1 250558Z 14003KT 15/15 A30 RMK A01 T01480148  RH  100%=      5-min Rain = 0
KGO1 250559Z 14003KT 15/15 A30 RMK A01 T01480148  RH  100%=      5-min Rain = 0
KGO1 250600Z 14003KT 15/15 A30 RMK A01 T01480148  RH  100%=      5-min Rain = 0
KGO1 250601Z 14004KT 15/15 A30 RMK A01 T01480148  RH  100%=      5-min Rain = 0
KGO1 250602Z 14004KT 15/15 A30 RMK A01 T01480148  RH  100%=      5-min Rain = 0
KGO1 250603Z 13004KT 15/15 A30 RMK A01 T01490149  RH  100%=      5-min Rain = 0
KGO1 250604Z 14003KT 15/15 A30 RMK A01 T01500150  RH  100%=      5-min Rain = 0
KGO1 250605Z 13003KT 15/15 A30 RMK A01 T01510151  RH  100%=      5-min Rain = 0
KGO1 250606Z 13004KT 15/15 A30 RMK A01 T01510151  RH  100%=      5-min Rain = 0
KGO1 250607Z 13004KT 15/15 A30 RMK A01 T01510151  RH  100%=      5-min Rain = 0
KGO1 250608Z 13003KT 15/15 A30 RMK A01 T01520152  RH  100%=      5-min Rain = 0
KGO1 250609Z 14003KT 15/15 A30 RMK A01 T01520152  RH  100%=      5-min Rain = 0
KGO1 250610Z 14004KT 15/15 A2999 RMK A01 T01520153  RH  100%=      5-min Rain = 0
KGO1 250611Z 14003KT 15/15 A2999 RMK A01 T01530153  RH  100%=      5-min Rain = 0
KGO1 250612Z 14004KT 15/15 A2999 RMK A01 T01530153  RH  100%=      5-min Rain = 0
KGO1 250613Z 14004KT 15/15 A2999 RMK A01 T01530153  RH  100%=      5-min Rain = 0
KGO1 250614Z 13004KT 15/15 A2999 RMK A01 T01530153  RH  100%=      5-min Rain = 0
KGO1 250615Z 13005KT 15/15 A30 RMK A01 T01530153  RH  100%=      5-min Rain = 0
KGO1 250616Z 13004KT 15/15 A30 RMK A01 T01530153  RH  100%=      5-min Rain = 0
KGO1 250617Z 14005KT 15/15 A30 RMK A01 T01530153  RH  100%=      5-min Rain = 0
KGO1 250618Z 13004KT 15/15 A30 RMK A01 T01530153  RH  100%=      5-min Rain = 0
KGO1 250619Z 14004KT 15/15 A30 RMK A01 T01530153  RH  100%=      5-min Rain = 0
KGO1 250620Z 14005KT 15/15 A2999 RMK A01 T01540154  RH  100%=      5-min Rain = 0
KGO1 250621Z 14005KT 15/16 A2999 RMK A01 T01540155  RH  100%=      5-min Rain = 0
KGO1 250622Z 14005KT 16/16 A2999 RMK A01 T01550155  RH  100%=      5-min Rain = 0
KGO1 250623Z 14006KT 16/16 A2999 RMK A01 T01560156  RH  100%=      5-min Rain = 0
KGO1 250624Z 14006KT 16/16 A2999 RMK A01 T01560156  RH  100%=      5-min Rain = 0
KGO1 250625Z 14007KT 16/16 A2999 RMK A01 T01570157  RH  100%=      5-min Rain = 0
KGO1 250626Z 14006KT 16/16 A2999 RMK A01 T01570157  RH  100%=      5-min Rain = 0
KGO1 250627Z 14006KT 16/16 A2999 RMK A01 T01580158  RH  100%=      5-min Rain = 0
KGO1 250628Z 14006KT 16/16 A2999 RMK A01 T01580158  RH  100%=      5-min Rain = 0
KGO1 250629Z 14007KT 16/16 A2999 RMK A01 T01580158  RH  100%=      5-min Rain = 0
KGO1 250630Z 14007KT 16/16 A2999 RMK A01 T01580158  RH  100%=      5-min Rain = 0
KGO1 250631Z 14006KT 16/16 A2999 RMK A01 T01590159  RH  100%=      5-min Rain = 0
KGO1 250632Z 14006KT 16/16 A2999 RMK A01 T01590159  RH  100%=      5-min Rain = 0
KGO1 250633Z 14006KT 16/16 A2999 RMK A01 T01590159  RH  100%=      5-min Rain = 0
KGO1 250634Z 14006KT 16/16 A2999 RMK A01 T01590159  RH  100%=      5-min Rain = 0
KGO1 250635Z 14006KT 16/16 A2999 RMK A01 T01590159  RH  100%=      5-min Rain = 0
KGO1 250636Z 14006KT 16/16 A2999 RMK A01 T01590159  RH  100%=      5-min Rain = 0
KGO1 250637Z 14006KT 16/16 A2999 RMK A01 T01580158  RH  100%=      5-min Rain = 0
KGO1 250638Z 15006KT 16/16 A2999 RMK A01 T01580158  RH  100%=      5-min Rain = 0
KGO1 250639Z 15006KT 16/16 A2999 RMK A01 T01580158  RH  100%=      5-min Rain = 0
KGO1 250640Z 15006KT 16/16 A2999 RMK A01 T01580158  RH  100%=      5-min Rain = 0
KGO1 250641Z 15006KT 16/16 A2999 RMK A01 T01580158  RH  100%=      5-min Rain = 0
KGO1 250642Z 15006KT 16/16 A2999 RMK A01 T01580158  RH  100%=      5-min Rain = 0
KGO1 250643Z 16006KT 16/16 A2999 RMK A01 T01580158  RH  100%=      5-min Rain = 0
KGO1 250644Z 16006KT 16/16 A2999 RMK A01 T01580158  RH  100%=      5-min Rain = 0
KGO1 250645Z 16007KT 16/16 A2999 RMK A01 T01580158  RH  100%=      5-min Rain = 0
KGO1 250646Z 16006KT 16/16 A2999 RMK A01 T01580158  RH  100%=      5-min Rain = 0
KGO1 250647Z 16006KT 16/16 A2999 RMK A01 T01580158  RH  100%=      5-min Rain = 0
KGO1 250648Z 16006KT 16/16 A2999 RMK A01 T01580158  RH  100%=      5-min Rain = 0
KGO1 250649Z 16006KT 16/16 A2999 RMK A01 T01580158  RH  100%=      5-min Rain = 0
KGO1 250650Z 16007KT 16/16 A2999 RMK A01 T01580158  RH  100%=      5-min Rain = 0
KGO1 250651Z 16007KT 16/16 A2999 RMK A01 T01580159  RH  100%=      5-min Rain = 0
KGO1 250652Z 15007KT 16/16 A2999 RMK A01 T01590159  RH  100%=      5-min Rain = 0
KGO1 250653Z 16007KT 16/16 A2999 RMK A01 T01590159  RH  100%=      5-min Rain = 0
KGO1 250654Z 15007KT 16/16 A2999 RMK A01 T01600160  RH  100%=      5-min Rain = 0
KGO1 250655Z 15007KT 16/16 A2999 RMK A01 T01590159  RH  100%=      5-min Rain = 0
KGO1 250656Z 15007KT 16/16 A2999 RMK A01 T01600160  RH  100%=      5-min Rain = 0
KGO1 250657Z 15006KT 16/16 A2998 RMK A01 T01600160  RH  100%=      5-min Rain = 0
KGO1 250658Z 15007KT 16/16 A2998 RMK A01 T01600160  RH  100%=      5-min Rain = 0
KGO1 250659Z 15007KT 16/16 A2998 RMK A01 T01590160  RH  100%=      5-min Rain = 0
KGO1 250700Z 15007KT 16/16 A2998 RMK A01 T01600160  RH  100%=      5-min Rain = 0
KGO1 250701Z 15007KT 16/16 A2998 RMK A01 T01600160  RH  100%=      5-min Rain = 0
KGO1 250702Z 16007KT 16/16 A2998 RMK A01 T01600160  RH  100%=      5-min Rain = 0
KGO1 250703Z 15007KT 16/16 A2998 RMK A01 T01590159  RH  100%=      5-min Rain = 0
KGO1 250704Z 16008KT 16/16 A2998 RMK A01 T01600160  RH  100%=      5-min Rain = 0
KGO1 250705Z 16008KT 16/16 A2999 RMK A01 T01600160  RH  100%=      5-min Rain = 0
KGO1 250706Z 16007KT 16/16 A2999 RMK A01 T01600160  RH  100%=      5-min Rain = 0
KGO1 250707Z 16007KT 16/16 A2999 RMK A01 T01600160  RH  100%=      5-min Rain = 0
KGO1 250708Z 16007KT 16/16 A2999 RMK A01 T01600160  RH  100%=      5-min Rain = 0
KGO1 250709Z 16006KT 16/16 A2999 RMK A01 T01600161  RH  100%=      5-min Rain = 0
KGO1 250710Z 16006KT 16/16 A2999 RMK A01 T01610161  RH  100%=      5-min Rain = 0
KGO1 250711Z 16007KT 16/16 A2999 RMK A01 T01610161  RH  100%=      5-min Rain = 0
KGO1 250712Z 17007KT 16/16 A2999 RMK A01 T01620162  RH  100%=      5-min Rain = 0
KGO1 250713Z 16007KT 16/16 A2999 RMK A01 T01630163  RH  100%=      5-min Rain = 0
KGO1 250714Z 17007KT 16/16 A2999 RMK A01 T01630163  RH  100%=      5-min Rain = 0
KGO1 250715Z 17007KT 16/16 A2999 RMK A01 T01630163  RH  100%=      5-min Rain = 0
KGO1 250716Z 17007KT 16/16 A2999 RMK A01 T01640164  RH  100%=      5-min Rain = 0
KGO1 250717Z 16009KT 16/16 A2998 RMK A01 T01640164  RH  100%=      5-min Rain = 0
KGO1 250718Z 16009KT 16/16 A2998 RMK A01 T01640164  RH  100%=      5-min Rain = 0
KGO1 250719Z 16010KT 17/17 A2998 RMK A01 T01650165  RH  100%=      5-min Rain = 0
KGO1 250720Z 16010KT 17/17 A2998 RMK A01 T01660166  RH  100%=      5-min Rain = 0
KGO1 250721Z 16010KT 17/17 A2998 RMK A01 T01670167  RH  100%=      5-min Rain = 0
KGO1 250722Z 16008KT 17/17 A2998 RMK A01 T01670167  RH  100%=      5-min Rain = 0
KGO1 250723Z 16009KT 17/17 A2998 RMK A01 T01670167  RH  100%=      5-min Rain = 0
KGO1 250724Z 17009KT 17/17 A2998 RMK A01 T01680168  RH  100%=      5-min Rain = 0
KGO1 250725Z 17009KT 17/17 A2998 RMK A01 T01680168  RH  100%=      5-min Rain = 0
KGO1 250726Z 16009KT 17/17 A2998 RMK A01 T01680168  RH  100%=      5-min Rain = 0
KGO1 250727Z 17009KT 17/17 A2998 RMK A01 T01680168  RH  100%=      5-min Rain = 0
KGO1 250728Z 17009KT 17/17 A2998 RMK A01 T01680168  RH  100%=      5-min Rain = 0
KGO1 250729Z 17009KT 17/17 A2998 RMK A01 T01680168  RH  100%=      5-min Rain = 0
KGO1 250730Z 17008KT 17/17 A2998 RMK A01 T01680169  RH  100%=      5-min Rain = 0
KGO1 250731Z 17009KT 17/17 A2998 RMK A01 T01690169  RH  100%=      5-min Rain = 0
KGO1 250732Z 17010KT 17/17 A2998 RMK A01 T01690169  RH  100%=      5-min Rain = 0
KGO1 250733Z 16009KT 17/17 A2998 RMK A01 T01690169  RH  100%=      5-min Rain = 0
KGO1 250734Z 17009KT 17/17 A2998 RMK A01 T01690169  RH  100%=      5-min Rain = 0
KGO1 250735Z 17008KT 17/17 A2998 RMK A01 T01690169  RH  100%=      5-min Rain = 0
KGO1 250736Z 17008KT 17/17 A2998 RMK A01 T01690169  RH  100%=      5-min Rain = 0
KGO1 250737Z 17008KT 17/17 A2998 RMK A01 T01700170  RH  100%=      5-min Rain = 0
KGO1 250738Z 16009KT 17/17 A2998 RMK A01 T01700170  RH  100%=      5-min Rain = 0
KGO1 250739Z 17008KT 17/17 A2998 RMK A01 T01700170  RH  100%=      5-min Rain = 0
KGO1 250740Z 17009KT 17/17 A2999 RMK A01 T01700170  RH  100%=      5-min Rain = 0
KGO1 250741Z 16009KT 17/17 A2999 RMK A01 T01700170  RH  100%=      5-min Rain = 0
KGO1 250742Z 16009KT 17/17 A2999 RMK A01 T01700170  RH  100%=      5-min Rain = 0
KGO1 250743Z 16008KT 17/17 A2999 RMK A01 T01700170  RH  100%=      5-min Rain = 0
KGO1 250744Z 17008KT 17/17 A2999 RMK A01 T01710170  RH  100%=      5-min Rain = 0
KGO1 250745Z 17008KT 17/17 A2999 RMK A01 T01710170  RH  100%=      5-min Rain = 0
KGO1 250746Z 17008KT 17/17 A2999 RMK A01 T01700170  RH  100%=      5-min Rain = 0
KGO1 250747Z 17009KT 17/17 A2999 RMK A01 T01710170  RH  100%=      5-min Rain = 0
KGO1 250748Z 16008KT 17/17 A2999 RMK A01 T01710171  RH  100%=      5-min Rain = 0
KGO1 250749Z 17008KT 17/17 A2999 RMK A01 T01710171  RH  100%=      5-min Rain = 0
KGO1 250750Z 16010KT 17/17 A2999 RMK A01 T01710171  RH  100%=      5-min Rain = 0
KGO1 250751Z 16010KT 17/17 A2999 RMK A01 T01710171  RH  100%=      5-min Rain = 0
KGO1 250752Z 16010KT 17/17 A2999 RMK A01 T01720171  RH  099%=      5-min Rain = 0
KGO1 250753Z 17010KT 17/17 A2999 RMK A01 T01720171  RH  099%=      5-min Rain = 0
KGO1 250754Z 16012KT 17/17 A2999 RMK A01 T01720171  RH  099%=      5-min Rain = 0
KGO1 250755Z 16012KT 17/17 A2999 RMK A01 T01730172  RH  099%=      5-min Rain = 0
KGO1 250756Z 16011KT 17/17 A2998 RMK A01 T01730172  RH  099%=      5-min Rain = 0
KGO1 250757Z 16012KT 17/17 A2998 RMK A01 T01730172  RH  099%=      5-min Rain = 0
KGO1 250758Z 16012KT 17/17 A2998 RMK A01 T01740172  RH  099%=      5-min Rain = 0
KGO1 250759Z 16012KT 17/17 A2998 RMK A01 T01740172  RH  099%=      5-min Rain = 0
KGO1 250800Z 16013KT 17/17 A2998 RMK A01 T01740172  RH  099%=      5-min Rain = 0
KGO1 250801Z 15013KT 17/17 A2998 RMK A01 T01740172  RH  099%=      5-min Rain = 0
KGO1 250802Z 16012KT 18/17 A2998 RMK A01 T01750172  RH  098%=      5-min Rain = 0
KGO1 250803Z 15012KT 18/17 A2998 RMK A01 T01750172  RH  098%=      5-min Rain = 0
KGO1 250804Z 15014KT 18/17 A2998 RMK A01 T01750172  RH  098%=      5-min Rain = 0
KGO1 250805Z 16014KT 18/17 A2998 RMK A01 T01750172  RH  098%=      5-min Rain = 0
KGO1 250806Z 15012KT 18/17 A2998 RMK A01 T01750172  RH  098%=      5-min Rain = 0
KGO1 250807Z 16013KT 18/17 A2998 RMK A01 T01750172  RH  098%=      5-min Rain = 0
KGO1 250808Z 15015KT 18/17 A2998 RMK A01 T01750172  RH  098%=      5-min Rain = 0
KGO1 250809Z 16014KT 18/17 A2998 RMK A01 T01750172  RH  098%=      5-min Rain = 0
KGO1 250810Z 16015KT 18/17 A2998 RMK A01 T01750172  RH  098%=      5-min Rain = 0
KGO1 250811Z 16012KT 18/17 A2998 RMK A01 T01750172  RH  098%=      5-min Rain = 0
KGO1 250812Z 16014KT 18/17 A2998 RMK A01 T01750172  RH  098%=      5-min Rain = 0
KGO1 250813Z 16015KT 18/17 A2998 RMK A01 T01750172  RH  098%=      5-min Rain = 0
KGO1 250814Z 15016KT 18/17 A2998 RMK A01 T01750172  RH  098%=      5-min Rain = 0
KGO1 250815Z 15015G20KT 18/17 A2998 RMK A01 T01750172  RH  098%=      5-min Rain = 0
KGO1 250816Z 16017KT 18/17 A2998 RMK A01 T01750172  RH  098%=      5-min Rain = 0
KGO1 250817Z 16015KT 18/17 A2998 RMK A01 T01750171  RH  097%=      5-min Rain = 0
KGO1 250818Z 15017KT 18/17 A2998 RMK A01 T01760172  RH  097%=      5-min Rain = 0
KGO1 250819Z 16014KT 18/17 A2998 RMK A01 T01750172  RH  098%=      5-min Rain = 0
KGO1 250820Z 16016KT 18/17 A2998 RMK A01 T01750171  RH  098%=      5-min Rain = 0
KGO1 250821Z 16016KT 18/17 A2998 RMK A01 T01750172  RH  098%=      5-min Rain = 0
KGO1 250822Z 16016KT 18/17 A2998 RMK A01 T01750171  RH  098%=      5-min Rain = 0
KGO1 250823Z 15014KT 18/17 A2998 RMK A01 T01750171  RH  098%=      5-min Rain = 0
KGO1 250824Z 16017KT 18/17 A2998 RMK A01 T01750172  RH  098%=      5-min Rain = 0
KGO1 250825Z 15015KT 18/17 A2998 RMK A01 T01750172  RH  098%=      5-min Rain = 0
KGO1 250826Z 15014KT 18/17 A2998 RMK A01 T01750171  RH  098%=      5-min Rain = 0
KGO1 250827Z 16015KT 18/17 A2998 RMK A01 T01750171  RH  098%=      5-min Rain = 0
KGO1 250828Z 16015KT 18/17 A2998 RMK A01 T01750171  RH  098%=      5-min Rain = 0
KGO1 250829Z 16012KT 18/17 A2998 RMK A01 T01750172  RH  098%=      5-min Rain = 0
KGO1 250830Z 16015KT 17/17 A2998 RMK A01 T01740171  RH  098%=      5-min Rain = 0
KGO1 250831Z 16013KT 17/17 A2998 RMK A01 T01740171  RH  098%=      5-min Rain = 0
KGO1 250832Z 16013KT 17/17 A2998 RMK A01 T01740171  RH  098%=      5-min Rain = 0
KGO1 250833Z 16013KT 17/17 A2998 RMK A01 T01740171  RH  098%=      5-min Rain = 0
KGO1 250834Z 16013KT 17/17 A2999 RMK A01 T01740172  RH  098%=      5-min Rain = 0
KGO1 250835Z 16012KT 17/17 A2999 RMK A01 T01730171  RH  098%=      5-min Rain = 0
KGO1 250836Z 16013KT 17/17 A2999 RMK A01 T01730171  RH  099%=      5-min Rain = 0
KGO1 250837Z 16012KT 17/17 A2999 RMK A01 T01730171  RH  099%=      5-min Rain = 0
KGO1 250838Z 16012KT 17/17 A2999 RMK A01 T01730171  RH  099%=      5-min Rain = 0
KGO1 250839Z 16012KT 17/17 A2999 RMK A01 T01730172  RH  099%=      5-min Rain = 0
KGO1 250840Z 16012KT 17/17 A2999 RMK A01 T01730172  RH  099%=      5-min Rain = 0
KGO1 250841Z 16012KT 17/17 A2999 RMK A01 T01730172  RH  099%=      5-min Rain = 0
KGO1 250842Z 16012KT 17/17 A2999 RMK A01 T01730172  RH  099%=      5-min Rain = 0
KGO1 250843Z 16015KT 17/17 A2999 RMK A01 T01730172  RH  099%=      5-min Rain = 0
KGO1 250844Z 16013KT 17/17 A2999 RMK A01 T01730172  RH  099%=      5-min Rain = 0
KGO1 250845Z 16015KT 17/17 A2999 RMK A01 T01730172  RH  100%=      5-min Rain = 0
KGO1 250846Z 16016KT 17/17 A2999 RMK A01 T01730173  RH  100%=      5-min Rain = 0
KGO1 250847Z 16016KT 17/17 A2999 RMK A01 T01730173  RH  100%=      5-min Rain = 0
KGO1 250848Z 16012KT 17/17 A2999 RMK A01 T01730173  RH  100%=      5-min Rain = 0
KGO1 250849Z 16015KT 17/17 A2999 RMK A01 T01730172  RH  100%=      5-min Rain = 0
KGO1 250850Z 16013KT 17/17 A2999 RMK A01 T01730173  RH  100%=      5-min Rain = 0
KGO1 250851Z 16013KT 17/17 A2999 RMK A01 T01730173  RH  100%=      5-min Rain = 0
KGO1 250852Z 15015KT 17/17 A2999 RMK A01 T01730173  RH  100%=      5-min Rain = 0
KGO1 250853Z 16014KT 17/17 A2999 RMK A01 T01730173  RH  100%=      5-min Rain = 0
KGO1 250854Z 15014KT 17/17 A2999 RMK A01 T01730173  RH  100%=      5-min Rain = 0
KGO1 250855Z 15015G20KT 17/17 A2999 RMK A01 T01730173  RH  100%=      5-min Rain = 0
KGO1 250856Z 15015KT 17/17 A2998 RMK A01 T01730173  RH  100%=      5-min Rain = 0
KGO1 250857Z 15014KT 17/17 A2998 RMK A01 T01730173  RH  100%=      5-min Rain = 0
KGO1 250858Z 15013KT 17/17 A2998 RMK A01 T01720172  RH  100%=      5-min Rain = 0
KGO1 250859Z 16011KT 17/17 A2999 RMK A01 T01720173  RH  100%=      5-min Rain = 0
KGO1 250900Z 15011KT 17/17 A2999 RMK A01 T01730173  RH  100%=      5-min Rain = 0
KGO1 250901Z 15008KT 17/17 A2999 RMK A01 T01720172  RH  100%=      5-min Rain = 0
KGO1 250902Z 16009G14KT 17/17 A2999 RMK A01 T01720172  RH  100%=      5-min Rain = 0
KGO1 250903Z 15013KT 17/17 A2998 RMK A01 T01720172  RH  100%=      5-min Rain = 0
KGO1 250904Z 15014KT 17/17 A2998 RMK A01 T01720172  RH  100%=      5-min Rain = 0
KGO1 250905Z 15012G17KT 17/17 A2998 RMK A01 T01720172  RH  100%=      5-min Rain = 0
KGO1 250906Z 15012KT 17/17 A2998 RMK A01 T01710171  RH  100%=      5-min Rain = 0
KGO1 250907Z 15010KT 17/17 A2998 RMK A01 T01710172  RH  100%=      5-min Rain = 0
KGO1 250908Z 16012KT 17/17 A2999 RMK A01 T01710171  RH  100%=      5-min Rain = 0
KGO1 250909Z 16011KT 17/17 A2999 RMK A01 T01710172  RH  100%=      5-min Rain = 0
KGO1 250910Z 16012KT 17/17 A2999 RMK A01 T01720172  RH  100%=      5-min Rain = 0
KGO1 250911Z 16010KT 17/17 A2999 RMK A01 T01710171  RH  100%=      5-min Rain = 0
KGO1 250912Z 15011KT 17/17 A2999 RMK A01 T01710171  RH  100%=      5-min Rain = 0
KGO1 250913Z 15012KT 17/17 A2999 RMK A01 T01710171  RH  100%=      5-min Rain = 0
KGO1 250914Z 15011KT 17/17 A2999 RMK A01 T01710171  RH  100%=      5-min Rain = 0
KGO1 250915Z 15009KT 17/17 A2999 RMK A01 T01700170  RH  100%=      5-min Rain = 0
KGO1 250916Z 15009KT 17/17 A2999 RMK A01 T01700170  RH  100%=      5-min Rain = 0
KGO1 250917Z 14012KT 17/17 A2999 RMK A01 T01700171  RH  100%=      5-min Rain = 0
KGO1 250918Z 16011KT 17/17 A2999 RMK A01 T01700171  RH  100%=      5-min Rain = 0
KGO1 250919Z 16011KT 17/17 A2999 RMK A01 T01700170  RH  100%=      5-min Rain = 0
KGO1 250920Z 16010KT 17/17 A2999 RMK A01 T01700170  RH  100%=      5-min Rain = 0
KGO1 250921Z 15009KT 17/17 A2999 RMK A01 T01700170  RH  100%=      5-min Rain = 0
KGO1 250922Z 16012KT 17/17 A2999 RMK A01 T01700170  RH  100%=      5-min Rain = 0
KGO1 250923Z 16011KT 17/17 A2999 RMK A01 T01700170  RH  100%=      5-min Rain = 0
KGO1 250924Z 15010KT 17/17 A2999 RMK A01 T01700170  RH  100%=      5-min Rain = 0
KGO1 250925Z 15012KT 17/17 A2999 RMK A01 T01700170  RH  100%=      5-min Rain = 0
KGO1 250926Z 15013KT 17/17 A2999 RMK A01 T01700170  RH  100%=      5-min Rain = 0
KGO1 250927Z 15013KT 17/17 A2999 RMK A01 T01700170  RH  100%=      5-min Rain = 0
KGO1 250928Z 15012KT 17/17 A2999 RMK A01 T01700170  RH  100%=      5-min Rain = 0
KGO1 250929Z 15011KT 17/17 A2999 RMK A01 T01690169  RH  100%=      5-min Rain = 0
KGO1 250930Z 16012KT 17/17 A2999 RMK A01 T01690169  RH  100%=      5-min Rain = 0
KGO1 250931Z 15011KT 17/17 A2999 RMK A01 T01690169  RH  100%=      5-min Rain = 0
KGO1 250932Z 16010KT 17/17 A2999 RMK A01 T01690169  RH  100%=      5-min Rain = 0
KGO1 250933Z 15011KT 17/17 A2999 RMK A01 T01690169  RH  100%=      5-min Rain = 0
KGO1 250934Z 15012KT 17/17 A2999 RMK A01 T01690169  RH  100%=      5-min Rain = 0
KGO1 250935Z 15010KT 17/17 A2999 RMK A01 T01690169  RH  100%=      5-min Rain = 0
KGO1 250936Z 15012KT 17/17 A2999 RMK A01 T01690169  RH  100%=      5-min Rain = 0
KGO1 250937Z 15011KT 17/17 A2999 RMK A01 T01690169  RH  100%=      5-min Rain = 0
KGO1 250938Z 16012KT 17/17 A2999 RMK A01 T01690169  RH  100%=      5-min Rain = 0
KGO1 250939Z 15011KT 17/17 A2999 RMK A01 T01690169  RH  100%=      5-min Rain = 0
KGO1 250940Z 16011KT 17/17 A2999 RMK A01 T01690169  RH  100%=      5-min Rain = 0
KGO1 250941Z 16014KT 17/17 A2999 RMK A01 T01690169  RH  100%=      5-min Rain = 0
KGO1 250942Z 16012KT 17/17 A2999 RMK A01 T01690169  RH  100%=      5-min Rain = 0
KGO1 250943Z 15013KT 17/17 A2999 RMK A01 T01690169  RH  100%=      5-min Rain = 0
KGO1 250944Z 15013KT 17/17 A2999 RMK A01 T01690169  RH  100%=      5-min Rain = 0
KGO1 250945Z 15012KT 17/17 A2999 RMK A01 T01690169  RH  100%=      5-min Rain = 0
KGO1 250946Z 15012KT 17/17 A2999 RMK A01 T01690169  RH  100%=      5-min Rain = 0
KGO1 250947Z 15012KT 17/17 A2999 RMK A01 T01690169  RH  100%=      5-min Rain = 0
KGO1 250948Z 15013KT 17/17 A2999 RMK A01 T01690169  RH  100%=      5-min Rain = 0
KGO1 250949Z 15011KT 17/17 A2999 RMK A01 T01690169  RH  100%=      5-min Rain = 0
KGO1 250950Z 15012G17KT 17/17 A2999 RMK A01 T01680169  RH  100%=      5-min Rain = 0
KGO1 250951Z 15011KT 17/17 A2999 RMK A01 T01680168  RH  100%=      5-min Rain = 0
KGO1 250952Z 15010KT 17/17 A2999 RMK A01 T01680168  RH  100%=      5-min Rain = 0
KGO1 250953Z 15012KT 17/17 A2999 RMK A01 T01680168  RH  100%=      5-min Rain = 0
KGO1 250954Z 15011KT 17/17 A2999 RMK A01 T01680168  RH  100%=      5-min Rain = 0
KGO1 250955Z 15009KT 17/17 A2999 RMK A01 T01680169  RH  100%=      5-min Rain = 0
KGO1 250956Z 15008KT 17/17 A2999 RMK A01 T01680168  RH  100%=      5-min Rain = 0
KGO1 250957Z 15010KT 17/17 A2999 RMK A01 T01680168  RH  100%=      5-min Rain = 0
KGO1 250958Z 15010KT 17/17 A2999 RMK A01 T01680169  RH  100%=      5-min Rain = 0
KGO1 250959Z 15011KT 17/17 A2999 RMK A01 T01680168  RH  100%=      5-min Rain = 0
KGO1 251000Z 14012KT 17/17 A2998 RMK A01 T01680168  RH  100%=      5-min Rain = 0
KGO1 251001Z 15011KT 17/17 A2998 RMK A01 T01680168  RH  100%=      5-min Rain = 0
KGO1 251002Z 15010KT 17/17 A2998 RMK A01 T01680168  RH  100%=      5-min Rain = 0
KGO1 251003Z 15010KT 17/17 A2998 RMK A01 T01680168  RH  100%=      5-min Rain = 0
KGO1 251004Z 15013KT 17/17 A2998 RMK A01 T01680168  RH  100%=      5-min Rain = 0
KGO1 251005Z 15012KT 17/17 A2999 RMK A01 T01680168  RH  100%=      5-min Rain = 0
KGO1 251006Z 15012KT 17/17 A2999 RMK A01 T01680168  RH  100%=      5-min Rain = 0
KGO1 251007Z 15011KT 17/17 A2999 RMK A01 T01680168  RH  100%=      5-min Rain = 0
KGO1 251008Z 15011KT 17/17 A2999 RMK A01 T01680168  RH  100%=      5-min Rain = 0
KGO1 251009Z 15011KT 17/17 A2999 RMK A01 T01680168  RH  100%=      5-min Rain = 0
KGO1 251010Z 15013KT 17/17 A2999 RMK A01 T01680168  RH  100%=      5-min Rain = 0
KGO1 251011Z 15011KT 17/17 A2999 RMK A01 T01670167  RH  100%=      5-min Rain = 0
KGO1 251012Z 15011KT 17/17 A2999 RMK A01 T01670167  RH  100%=      5-min Rain = 0
KGO1 251013Z 15010KT 17/17 A2999 RMK A01 T01670168  RH  100%=      5-min Rain = 0
KGO1 251014Z 15011KT 17/17 A2999 RMK A01 T01670167  RH  100%=      5-min Rain = 0
KGO1 251015Z 15011KT 17/17 A2999 RMK A01 T01670167  RH  100%=      5-min Rain = 0
KGO1 251016Z 15010KT 17/17 A2999 RMK A01 T01670167  RH  100%=      5-min Rain = 0
KGO1 251017Z 15010KT 17/17 A2999 RMK A01 T01670167  RH  100%=      5-min Rain = 0
KGO1 251018Z 15010KT 17/17 A2999 RMK A01 T01670167  RH  100%=      5-min Rain = 0
KGO1 251019Z 15011KT 17/17 A2998 RMK A01 T01670167  RH  100%=      5-min Rain = 0
KGO1 251020Z 15011KT 17/17 A2998 RMK A01 T01670167  RH  100%=      5-min Rain = 0
KGO1 251021Z 15010KT 17/17 A2998 RMK A01 T01670167  RH  100%=      5-min Rain = 0
KGO1 251022Z 16012KT 17/17 A2998 RMK A01 T01670167  RH  100%=      5-min Rain = 0
KGO1 251023Z 15010KT 17/17 A2999 RMK A01 T01670167  RH  100%=      5-min Rain = 0
KGO1 251024Z 15013KT 17/17 A2999 RMK A01 T01670167  RH  100%=      5-min Rain = 0
KGO1 251025Z 15012KT 17/17 A2999 RMK A01 T01670167  RH  100%=      5-min Rain = 0
KGO1 251026Z 16011KT 17/17 A2999 RMK A01 T01670167  RH  100%=      5-min Rain = 0
KGO1 251027Z 15013KT 17/17 A2999 RMK A01 T01670167  RH  100%=      5-min Rain = 0
KGO1 251028Z 16011KT 17/17 A2999 RMK A01 T01670167  RH  100%=      5-min Rain = 0
KGO1 251029Z 16012KT 17/17 A2999 RMK A01 T01670167  RH  100%=      5-min Rain = 0
KGO1 251030Z 16010KT 17/17 A2999 RMK A01 T01670167  RH  100%=      5-min Rain = 0
KGO1 251031Z 15012KT 17/17 A2999 RMK A01 T01670167  RH  100%=      5-min Rain = 0
KGO1 251032Z 15012KT 17/17 A2999 RMK A01 T01670167  RH  100%=      5-min Rain = 0
KGO1 251033Z 16012KT 17/17 A2999 RMK A01 T01670167  RH  100%=      5-min Rain = 0
KGO1 251034Z 15011KT 17/17 A2999 RMK A01 T01660166  RH  100%=      5-min Rain = 0
KGO1 251035Z 15011KT 17/17 A2999 RMK A01 T01660166  RH  100%=      5-min Rain = 0
KGO1 251036Z 16011KT 17/17 A2999 RMK A01 T01660166  RH  100%=      5-min Rain = 0
KGO1 251037Z 16013KT 17/17 A2999 RMK A01 T01660166  RH  100%=      5-min Rain = 0
KGO1 251038Z 16011KT 17/17 A2999 RMK A01 T01660166  RH  100%=      5-min Rain = 0
KGO1 251039Z 16010KT 17/17 A2999 RMK A01 T01660166  RH  100%=      5-min Rain = 0
KGO1 251040Z 16011KT 17/17 A2999 RMK A01 T01660166  RH  100%=      5-min Rain = 0
KGO1 251041Z 16010KT 17/17 A2999 RMK A01 T01670167  RH  100%=      5-min Rain = 0
KGO1 251042Z 17012KT 17/17 A2999 RMK A01 T01670167  RH  100%=      5-min Rain = 0
KGO1 251043Z 16011KT 17/17 A2999 RMK A01 T01670167  RH  100%=      5-min Rain = 0
KGO1 251044Z 16011KT 17/17 A2999 RMK A01 T01670167  RH  100%=      5-min Rain = 0
KGO1 251045Z 16011KT 17/17 A2999 RMK A01 T01670167  RH  100%=      5-min Rain = 0
KGO1 251046Z 16012KT 17/17 A2999 RMK A01 T01670167  RH  100%=      5-min Rain = 0
KGO1 251047Z 16012KT 17/17 A2999 RMK A01 T01670167  RH  100%=      5-min Rain = 0
KGO1 251048Z 16011KT 17/17 A2999 RMK A01 T01670167  RH  100%=      5-min Rain = 0
KGO1 251049Z 16011KT 17/17 A2999 RMK A01 T01670167  RH  100%=      5-min Rain = 0
KGO1 251050Z 16010KT 17/17 A2999 RMK A01 T01670167  RH  100%=      5-min Rain = 0
KGO1 251051Z 16010KT 17/17 A2999 RMK A01 T01670167  RH  100%=      5-min Rain = 0
KGO1 251052Z 16012KT 17/17 A2999 RMK A01 T01670167  RH  100%=      5-min Rain = 0
KGO1 251053Z 16012KT 17/17 A2999 RMK A01 T01670167  RH  100%=      5-min Rain = 0
KGO1 251054Z 16011KT 17/17 A2999 RMK A01 T01670167  RH  100%=      5-min Rain = 0
KGO1 251055Z 17011KT 17/17 A2999 RMK A01 T01670167  RH  100%=      5-min Rain = 0
KGO1 251056Z 16012KT 17/17 A2999 RMK A01 T01670167  RH  100%=      5-min Rain = 0
KGO1 251057Z 17014KT 17/17 A2999 RMK A01 T01670167  RH  100%=      5-min Rain = 0
KGO1 251058Z 16011KT 17/17 A2999 RMK A01 T01670167  RH  100%=      5-min Rain = 0
KGO1 251059Z 16011KT 17/17 A2999 RMK A01 T01670167  RH  100%=      5-min Rain = 0
KGO1 251100Z 16011KT 17/17 A2999 RMK A01 T01670167  RH  100%=      5-min Rain = 0
KGO1 251101Z 16011KT 17/17 A30 RMK A01 T01670167  RH  100%=      5-min Rain = 0
KGO1 251102Z 16013KT 17/17 A2999 RMK A01 T01670167  RH  100%=      5-min Rain = 0
KGO1 251103Z 16011KT 17/17 A2999 RMK A01 T01670167  RH  100%=      5-min Rain = 0
KGO1 251104Z 16010KT 17/17 A2999 RMK A01 T01670167  RH  100%=      5-min Rain = 0
KGO1 251105Z 16012KT 17/17 A2999 RMK A01 T01670167  RH  100%=      5-min Rain = 0
KGO1 251106Z 16012KT 17/17 A2999 RMK A01 T01670167  RH  100%=      5-min Rain = 0
KGO1 251107Z 16012KT 17/17 A2999 RMK A01 T01670167  RH  100%=      5-min Rain = 0
KGO1 251108Z 16011KT 17/17 A2999 RMK A01 T01670167  RH  100%=      5-min Rain = 0
KGO1 251109Z 16011KT 17/17 A2999 RMK A01 T01670167  RH  100%=      5-min Rain = 0
KGO1 251110Z 16011KT 17/17 A2999 RMK A01 T01670167  RH  100%=      5-min Rain = 0
KGO1 251111Z 16011KT 17/17 A2999 RMK A01 T01670167  RH  100%=      5-min Rain = 0
KGO1 251112Z 16013KT 17/17 A2999 RMK A01 T01670167  RH  100%=      5-min Rain = 0
KGO1 251113Z 16014KT 17/17 A2999 RMK A01 T01670167  RH  100%=      5-min Rain = 0
KGO1 251114Z 16012KT 17/17 A2999 RMK A01 T01670167  RH  100%=      5-min Rain = 0
KGO1 251115Z 16011KT 17/17 A30 RMK A01 T01670167  RH  100%=      5-min Rain = 0
KGO1 251116Z 16013KT 17/17 A30 RMK A01 T01670167  RH  100%=      5-min Rain = 0
KGO1 251117Z 16012KT 17/17 A30 RMK A01 T01670167  RH  100%=      5-min Rain = 0
KGO1 251118Z 16010KT 17/17 A30 RMK A01 T01670167  RH  100%=      5-min Rain = 0
KGO1 251119Z 16011KT 17/17 A2999 RMK A01 T01670167  RH  100%=      5-min Rain = 0
KGO1 251120Z 16013KT 17/17 A2999 RMK A01 T01680168  RH  100%=      5-min Rain = 0
KGO1 251121Z 16014KT 17/17 A2999 RMK A01 T01670168  RH  100%=      5-min Rain = 0
KGO1 251122Z 16013KT 17/17 A2999 RMK A01 T01670168  RH  100%=      5-min Rain = 0
KGO1 251123Z 16013KT 17/17 A2999 RMK A01 T01670168  RH  100%=      5-min Rain = 0
KGO1 251124Z 16014KT 17/17 A2999 RMK A01 T01670167  RH  100%=      5-min Rain = 0
KGO1 251125Z 16011KT 17/17 A2999 RMK A01 T01670167  RH  100%=      5-min Rain = 0
KGO1 251126Z 16011KT 17/17 A2999 RMK A01 T01670167  RH  100%=      5-min Rain = 0
KGO1 251127Z 16012KT 17/17 A30 RMK A01 T01680168  RH  100%=      5-min Rain = 0
KGO1 251128Z 17011G16KT 17/17 A30 RMK A01 T01670167  RH  100%=      5-min Rain = 0
KGO1 251129Z 16015KT 17/17 A30 RMK A01 T01670167  RH  100%=      5-min Rain = 0
KGO1 251130Z 17013KT 17/17 A30 RMK A01 T01670167  RH  100%=      5-min Rain = 0
KGO1 251131Z 17014KT 17/17 A30 RMK A01 T01670167  RH  100%=      5-min Rain = 0
KGO1 251132Z 16014KT 17/17 A30 RMK A01 T01670167  RH  100%=      5-min Rain = 0
KGO1 251133Z 17012KT 17/17 A30 RMK A01 T01670167  RH  100%=      5-min Rain = 0
KGO1 251134Z 16013KT 17/17 A30 RMK A01 T01670167  RH  100%=      5-min Rain = 0
KGO1 251135Z 16011KT 17/17 A30 RMK A01 T01670167  RH  100%=      5-min Rain = 0
KGO1 251136Z 17012KT 17/17 A30 RMK A01 T01670167  RH  100%=      5-min Rain = 0
KGO1 251137Z 17013KT 17/17 A30 RMK A01 T01670168  RH  100%=      5-min Rain = 0
KGO1 251138Z 17011KT 17/17 A30 RMK A01 T01670167  RH  100%=      5-min Rain = 0
KGO1 251139Z 17012KT 17/17 A30 RMK A01 T01670168  RH  100%=      5-min Rain = 0
KGO1 251140Z 17012KT 17/17 A30 RMK A01 T01670167  RH  100%=      5-min Rain = 0
KGO1 251141Z 17010KT 17/17 A30 RMK A01 T01670167  RH  100%=      5-min Rain = 0
KGO1 251142Z 17009KT 17/17 A30 RMK A01 T01680168  RH  100%=      5-min Rain = 0
KGO1 251143Z 17010KT 17/17 A30 RMK A01 T01680168  RH  100%=      5-min Rain = 0
KGO1 251144Z 17011KT 17/17 A30 RMK A01 T01680168  RH  100%=      5-min Rain = 0
KGO1 251145Z 17012KT 17/17 A30 RMK A01 T01680168  RH  100%=      5-min Rain = 0
KGO1 251146Z 17012KT 17/17 A30 RMK A01 T01680168  RH  100%=      5-min Rain = 0
KGO1 251147Z 16012KT 17/17 A30 RMK A01 T01680168  RH  100%=      5-min Rain = 0
KGO1 251148Z 17012KT 17/17 A30 RMK A01 T01680168  RH  100%=      5-min Rain = 0
KGO1 251149Z 17014KT 17/17 A30 RMK A01 T01680168  RH  100%=      5-min Rain = 0
KGO1 251150Z 16013KT 17/17 A30 RMK A01 T01680168  RH  100%=      5-min Rain = 0
KGO1 251151Z 16012KT 17/17 A30 RMK A01 T01680168  RH  100%=      5-min Rain = 0
KGO1 251152Z 17011KT 17/17 A30 RMK A01 T01680168  RH  100%=      5-min Rain = 0
KGO1 251153Z 17012KT 17/17 A30 RMK A01 T01680168  RH  100%=      5-min Rain = 0
KGO1 251154Z 17014KT 17/17 A30 RMK A01 T01680168  RH  100%=      5-min Rain = 0
KGO1 251155Z 17011KT 17/17 A30 RMK A01 T01680168  RH  100%=      5-min Rain = 0
KGO1 251156Z 17012KT 17/17 A30 RMK A01 T01680168  RH  100%=      5-min Rain = 0
KGO1 251157Z 17014KT 17/17 A30 RMK A01 T01680168  RH  100%=      5-min Rain = 0
KGO1 251158Z 17013KT 17/17 A30 RMK A01 T01680168  RH  100%=      5-min Rain = 0
KGO1 251159Z 17010KT 17/17 A30 RMK A01 T01680168  RH  100%=      5-min Rain = 0
KGO1 251200Z 17011KT 17/17 A30 RMK A01 T01680168  RH  100%=      5-min Rain = 0
KGO1 251201Z 17014KT 17/17 A30 RMK A01 T01680168  RH  100%=      5-min Rain = 0
KGO1 251202Z 17014KT 17/17 A30 RMK A01 T01680168  RH  100%=      5-min Rain = 0
KGO1 251203Z 17013KT 17/17 A3001 RMK A01 T01680168  RH  100%=      5-min Rain = 0
KGO1 251204Z 17012KT 17/17 A30 RMK A01 T01680168  RH  100%=      5-min Rain = 0
KGO1 251205Z 17012KT 17/17 A30 RMK A01 T01680168  RH  100%=      5-min Rain = 0
KGO1 251206Z 17011KT 17/17 A3001 RMK A01 T01690169  RH  100%=      5-min Rain = 0
KGO1 251207Z 17012KT 17/17 A3001 RMK A01 T01690169  RH  100%=      5-min Rain = 0
KGO1 251208Z 17011KT 17/17 A3001 RMK A01 T01690169  RH  100%=      5-min Rain = 0
KGO1 251209Z 17013KT 17/17 A3001 RMK A01 T01690169  RH  100%=      5-min Rain = 0
KGO1 251210Z 17013KT 17/17 A3001 RMK A01 T01690169  RH  100%=      5-min Rain = 0
KGO1 251211Z 17012KT 17/17 A3001 RMK A01 T01690169  RH  100%=      5-min Rain = 0
KGO1 251212Z 17014KT 17/17 A3001 RMK A01 T01690169  RH  100%=      5-min Rain = 0
KGO1 251213Z 17012KT 17/17 A3001 RMK A01 T01690169  RH  100%=      5-min Rain = 0
KGO1 251214Z 17011KT 17/17 A3001 RMK A01 T01690169  RH  100%=      5-min Rain = 0
KGO1 251215Z 17010KT 17/17 A3001 RMK A01 T01690169  RH  100%=      5-min Rain = 0
KGO1 251216Z 17012KT 17/17 A3001 RMK A01 T01690169  RH  100%=      5-min Rain = 0
KGO1 251217Z 17013KT 17/17 A3001 RMK A01 T01690169  RH  100%=      5-min Rain = 0
KGO1 251218Z 18011KT 17/17 A3001 RMK A01 T01690169  RH  100%=      5-min Rain = 0
KGO1 251219Z 18010KT 17/17 A3001 RMK A01 T01690169  RH  100%=      5-min Rain = 0
KGO1 251220Z 17011KT 17/17 A3001 RMK A01 T01690169  RH  100%=      5-min Rain = 0
KGO1 251221Z 18012KT 17/17 A3001 RMK A01 T01700170  RH  100%=      5-min Rain = 0
KGO1 251222Z 17012KT 17/17 A3001 RMK A01 T01700170  RH  100%=      5-min Rain = 0
KGO1 251223Z 17010KT 17/17 A3001 RMK A01 T01700170  RH  100%=      5-min Rain = 0
KGO1 251224Z 17010KT 17/17 A3001 RMK A01 T01700170  RH  100%=      5-min Rain = 0
KGO1 251225Z 17011KT 17/17 A3001 RMK A01 T01700170  RH  100%=      5-min Rain = 0
KGO1 251226Z 17012KT 17/17 A3001 RMK A01 T01700170  RH  100%=      5-min Rain = 0
KGO1 251227Z 17012KT 17/17 A3001 RMK A01 T01690170  RH  100%=      5-min Rain = 0
KGO1 251228Z 17012KT 17/17 A3001 RMK A01 T01690170  RH  100%=      5-min Rain = 0
KGO1 251229Z 17013KT 17/17 A3001 RMK A01 T01700170  RH  100%=      5-min Rain = 0
KGO1 251230Z 17012KT 17/17 A3001 RMK A01 T01700170  RH  100%=      5-min Rain = 0
KGO1 251231Z 17014KT 17/17 A3001 RMK A01 T01700170  RH  100%=      5-min Rain = 0
KGO1 251232Z 17012KT 17/17 A3001 RMK A01 T01700170  RH  100%=      5-min Rain = 0
KGO1 251233Z 17012KT 17/17 A3001 RMK A01 T01700170  RH  100%=      5-min Rain = 0
KGO1 251234Z 17012KT 17/17 A3001 RMK A01 T01700170  RH  100%=      5-min Rain = 0
KGO1 251235Z 17010KT 17/17 A3001 RMK A01 T01700170  RH  100%=      5-min Rain = 0
KGO1 251236Z 17011KT 17/17 A3001 RMK A01 T01700170  RH  100%=      5-min Rain = 0
KGO1 251237Z 17012KT 17/17 A3001 RMK A01 T01700170  RH  100%=      5-min Rain = 0
KGO1 251238Z 17012KT 17/17 A3001 RMK A01 T01700170  RH  100%=      5-min Rain = 0
KGO1 251239Z 17011KT 17/17 A3001 RMK A01 T01700170  RH  100%=      5-min Rain = 0
KGO1 251240Z 17012KT 17/17 A3001 RMK A01 T01700170  RH  100%=      5-min Rain = 0
KGO1 251241Z 17013KT 17/17 A3001 RMK A01 T01700170  RH  100%=      5-min Rain = 0
KGO1 251242Z 17013KT 17/17 A3001 RMK A01 T01700170  RH  100%=      5-min Rain = 0
KGO1 251243Z 17012KT 17/17 A3001 RMK A01 T01700170  RH  100%=      5-min Rain = 0
KGO1 251244Z 17011KT 17/17 A3002 RMK A01 T01710171  RH  100%=      5-min Rain = 0
KGO1 251245Z 17012KT 17/17 A3001 RMK A01 T01700170  RH  100%=      5-min Rain = 0
KGO1 251246Z 17013KT 17/17 A3001 RMK A01 T01700170  RH  100%=      5-min Rain = 0
KGO1 251247Z 17011KT 17/17 A3002 RMK A01 T01710171  RH  100%=      5-min Rain = 0
KGO1 251248Z 17011KT 17/17 A3002 RMK A01 T01710171  RH  100%=      5-min Rain = 0
KGO1 251249Z 17012KT 17/17 A3001 RMK A01 T01710171  RH  100%=      5-min Rain = 0
KGO1 251250Z 17014KT 17/17 A3001 RMK A01 T01710171  RH  100%=      5-min Rain = 0
KGO1 251251Z 17010KT 17/17 A3001 RMK A01 T01710172  RH  100%=      5-min Rain = 0
KGO1 251252Z 18010KT 17/17 A3002 RMK A01 T01720172  RH  100%=      5-min Rain = 0
KGO1 251253Z 17012KT 17/17 A3001 RMK A01 T01710171  RH  100%=      5-min Rain = 0
KGO1 251254Z 17013KT 17/17 A3001 RMK A01 T01710172  RH  100%=      5-min Rain = 0
KGO1 251255Z 17013KT 17/17 A3001 RMK A01 T01710171  RH  100%=      5-min Rain = 0
KGO1 251256Z 17012KT 17/17 A3001 RMK A01 T01710172  RH  100%=      5-min Rain = 0
KGO1 251257Z 17012KT 17/17 A3001 RMK A01 T01710172  RH  100%=      5-min Rain = 0
KGO1 251258Z 17011KT 17/17 A3001 RMK A01 T01710172  RH  100%=      5-min Rain = 0
KGO1 251259Z 17011KT 17/17 A3001 RMK A01 T01720172  RH  100%=      5-min Rain = 0
KGO1 251300Z 17013KT 17/17 A3001 RMK A01 T01720172  RH  100%=      5-min Rain = 0
KGO1 251301Z 17012KT 17/17 A3001 RMK A01 T01720172  RH  100%=      5-min Rain = 0
KGO1 251302Z 17012KT 17/17 A3001 RMK A01 T01720172  RH  100%=      5-min Rain = 0
KGO1 251303Z 17011KT 17/17 A3001 RMK A01 T01720172  RH  100%=      5-min Rain = 0
KGO1 251304Z 17013KT 17/17 A3001 RMK A01 T01720172  RH  100%=      5-min Rain = 0
KGO1 251305Z 17011KT 17/17 A3001 RMK A01 T01720173  RH  100%=      5-min Rain = 0
KGO1 251306Z 17012KT 17/17 A3001 RMK A01 T01720172  RH  100%=      5-min Rain = 0
KGO1 251307Z 17011KT 17/17 A3001 RMK A01 T01730173  RH  100%=      5-min Rain = 0
KGO1 251308Z 17013KT 17/17 A3001 RMK A01 T01730173  RH  100%=      5-min Rain = 0
KGO1 251309Z 17012KT 17/17 A3001 RMK A01 T01730173  RH  100%=      5-min Rain = 0
KGO1 251310Z 17012G17KT 17/17 A3001 RMK A01 T01730173  RH  100%=      5-min Rain = 0
KGO1 251311Z 17014KT 17/17 A3001 RMK A01 T01730173  RH  100%=      5-min Rain = 0
KGO1 251312Z 17014KT 17/17 A3001 RMK A01 T01730173  RH  100%=      5-min Rain = 0
KGO1 251313Z 17013KT 17/17 A3001 RMK A01 T01730173  RH  100%=      5-min Rain = 0
KGO1 251314Z 17014KT 17/17 A3001 RMK A01 T01730173  RH  100%=      5-min Rain = 0
KGO1 251315Z 17014KT 17/17 A3001 RMK A01 T01730173  RH  100%=      5-min Rain = 0
KGO1 251316Z 17014KT 17/17 A3001 RMK A01 T01730173  RH  100%=      5-min Rain = 0
KGO1 251317Z 17015KT 17/17 A3001 RMK A01 T01730173  RH  100%=      5-min Rain = 0
KGO1 251318Z 17012KT 17/17 A3001 RMK A01 T01730173  RH  100%=      5-min Rain = 0
KGO1 251319Z 17012KT 17/17 A3001 RMK A01 T01740174  RH  100%=      5-min Rain = 0
KGO1 251320Z 17012KT 17/17 A3001 RMK A01 T01740174  RH  100%=      5-min Rain = 0
KGO1 251321Z 17013KT 17/17 A3001 RMK A01 T01740174  RH  100%=      5-min Rain = 0
KGO1 251322Z 17012KT 17/17 A3001 RMK A01 T01740174  RH  100%=      5-min Rain = 0
KGO1 251323Z 17014KT 17/18 A3001 RMK A01 T01740175  RH  100%=      5-min Rain = 0
KGO1 251324Z 17014KT 18/18 A3001 RMK A01 T01750175  RH  100%=      5-min Rain = 0
KGO1 251325Z 17012KT 18/18 A3001 RMK A01 T01750175  RH  100%=      5-min Rain = 0
KGO1 251326Z 17013KT 18/18 A3001 RMK A01 T01750175  RH  100%=      5-min Rain = 0
KGO1 251327Z 16015KT 18/18 A3001 RMK A01 T01750175  RH  100%=      5-min Rain = 0
KGO1 251328Z 17014KT 17/18 A3001 RMK A01 T01740175  RH  100%=      5-min Rain = 0
KGO1 251329Z 17013KT 17/17 A3001 RMK A01 T01740174  RH  100%=      5-min Rain = 0
KGO1 251330Z 17012KT 17/17 A3002 RMK A01 T01740174  RH  100%=      5-min Rain = 0
KGO1 251331Z 17012KT 17/17 A3002 RMK A01 T01740174  RH  100%=      5-min Rain = 0
KGO1 251332Z 17011KT 17/17 A3002 RMK A01 T01740174  RH  100%=      5-min Rain = 0
KGO1 251333Z 17013KT 18/18 A3002 RMK A01 T01750175  RH  100%=      5-min Rain = 0
KGO1 251334Z 17012KT 18/18 A3002 RMK A01 T01750175  RH  100%=      5-min Rain = 0
KGO1 251335Z 17011KT 18/18 A3002 RMK A01 T01750175  RH  100%=      5-min Rain = 0
KGO1 251336Z 17013KT 18/18 A3002 RMK A01 T01750175  RH  100%=      5-min Rain = 0
KGO1 251337Z 17011KT 18/18 A3002 RMK A01 T01750175  RH  100%=      5-min Rain = 0
KGO1 251338Z 17011KT 18/18 A3002 RMK A01 T01750175  RH  100%=      5-min Rain = 0
KGO1 251339Z 17010KT 18/18 A3002 RMK A01 T01750175  RH  100%=      5-min Rain = 0
KGO1 251340Z 17010KT 18/18 A3002 RMK A01 T01750175  RH  100%=      5-min Rain = 0
KGO1 251341Z 17010KT 18/18 A3002 RMK A01 T01750175  RH  100%=      5-min Rain = 0
KGO1 251342Z 17011KT 18/18 A3002 RMK A01 T01750175  RH  100%=      5-min Rain = 0
KGO1 251343Z 17012KT 18/18 A3002 RMK A01 T01750175  RH  100%=      5-min Rain = 0
KGO1 251344Z 17011KT 18/18 A3002 RMK A01 T01750175  RH  100%=      5-min Rain = 0
KGO1 251345Z 17010KT 18/18 A3003 RMK A01 T01760176  RH  100%=      5-min Rain = 0
KGO1 251346Z 17011KT 18/18 A3003 RMK A01 T01760176  RH  100%=      5-min Rain = 0
KGO1 251347Z 17010KT 18/18 A3003 RMK A01 T01760176  RH  100%=      5-min Rain = 0
KGO1 251348Z 17011KT 18/18 A3003 RMK A01 T01760176  RH  100%=      5-min Rain = 0
KGO1 251349Z 17012KT 18/18 A3003 RMK A01 T01770177  RH  100%=      5-min Rain = 0
KGO1 251350Z 17012KT 18/18 A3003 RMK A01 T01770177  RH  100%=      5-min Rain = 0
KGO1 251351Z 17011KT 18/18 A3003 RMK A01 T01760176  RH  100%=      5-min Rain = 0
KGO1 251352Z 17010KT 18/18 A3003 RMK A01 T01760177  RH  100%=      5-min Rain = 0
KGO1 251353Z 17010KT 18/18 A3003 RMK A01 T01770177  RH  100%=      5-min Rain = 0
KGO1 251354Z 17010KT 18/18 A3003 RMK A01 T01770177  RH  100%=      5-min Rain = 0
KGO1 251355Z 17011KT 18/18 A3003 RMK A01 T01770177  RH  100%=      5-min Rain = 0
KGO1 251356Z 17012KT 18/18 A3003 RMK A01 T01770177  RH  100%=      5-min Rain = 0
KGO1 251357Z 17012KT 18/18 A3003 RMK A01 T01770177  RH  100%=      5-min Rain = 0
KGO1 251358Z 17011KT 18/18 A3003 RMK A01 T01770177  RH  100%=      5-min Rain = 0
KGO1 251359Z 17012KT 18/18 A3003 RMK A01 T01770177  RH  100%=      5-min Rain = 0
KGO1 251400Z 17012KT 18/18 A3003 RMK A01 T01770177  RH  100%=      5-min Rain = 0
KGO1 251401Z 17011KT 18/18 A3003 RMK A01 T01770177  RH  100%=      5-min Rain = 0
KGO1 251402Z 17011KT 18/18 A3003 RMK A01 T01770177  RH  100%=      5-min Rain = 0
KGO1 251403Z 18010KT 18/18 A3003 RMK A01 T01780178  RH  100%=      5-min Rain = 0
KGO1 251404Z 17009KT 18/18 A3003 RMK A01 T01780178  RH  100%=      5-min Rain = 0
KGO1 251405Z 17010KT 18/18 A3004 RMK A01 T01780178  RH  100%=      5-min Rain = 0
KGO1 251406Z 17010KT 18/18 A3004 RMK A01 T01780178  RH  100%=      5-min Rain = 0
KGO1 251407Z 18008KT 18/18 A3004 RMK A01 T01780178  RH  100%=      5-min Rain = 0
KGO1 251408Z 17007KT 18/18 A3004 RMK A01 T01780178  RH  100%=      5-min Rain = 0
KGO1 251409Z 17007KT 18/18 A3004 RMK A01 T01790179  RH  100%=      5-min Rain = 0
KGO1 251410Z 18009KT 18/18 A3004 RMK A01 T01790179  RH  100%=      5-min Rain = 0
KGO1 251411Z 17008KT 18/18 A3004 RMK A01 T01790179  RH  100%=      5-min Rain = 0
KGO1 251412Z 18010KT 18/18 A3004 RMK A01 T01790179  RH  100%=      5-min Rain = 0
KGO1 251413Z 17008KT 18/18 A3004 RMK A01 T01790179  RH  100%=      5-min Rain = 0
KGO1 251414Z 18007KT 18/18 A3004 RMK A01 T01790179  RH  100%=      5-min Rain = 0
KGO1 251415Z 18008KT 18/18 A3004 RMK A01 T01800180  RH  100%=      5-min Rain = 0
KGO1 251416Z 18010KT 18/18 A3004 RMK A01 T01800180  RH  100%=      5-min Rain = 0
KGO1 251417Z 17010KT 18/18 A3004 RMK A01 T01800180  RH  100%=      5-min Rain = 0
KGO1 251418Z 17010KT 18/18 A3004 RMK A01 T01800180  RH  100%=      5-min Rain = 0
KGO1 251419Z 17010KT 18/18 A3004 RMK A01 T01800180  RH  100%=      5-min Rain = 0
KGO1 251420Z 16008KT 18/18 A3004 RMK A01 T01800181  RH  100%=      5-min Rain = 0
KGO1 251421Z 17009KT 18/18 A3004 RMK A01 T01810181  RH  100%=      5-min Rain = 0
KGO1 251422Z 17012KT 18/18 A3004 RMK A01 T01810181  RH  100%=      5-min Rain = 0
KGO1 251423Z 16009KT 18/18 A3004 RMK A01 T01810181  RH  100%=      5-min Rain = 0
KGO1 251424Z 16011KT 18/18 A3004 RMK A01 T01810181  RH  100%=      5-min Rain = 0
KGO1 251425Z 17011KT 18/18 A3004 RMK A01 T01810181  RH  100%=      5-min Rain = 0
KGO1 251426Z 17012KT 18/18 A3004 RMK A01 T01810181  RH  100%=      5-min Rain = 0
KGO1 251427Z 17010KT 18/18 A3004 RMK A01 T01810181  RH  100%=      5-min Rain = 0
KGO1 251428Z 17010KT 18/18 A3004 RMK A01 T01810181  RH  100%=      5-min Rain = 0
KGO1 251429Z 17012KT 18/18 A3004 RMK A01 T01810181  RH  100%=      5-min Rain = 0
KGO1 251430Z 17009KT 18/18 A3004 RMK A01 T01820182  RH  100%=      5-min Rain = 0
KGO1 251431Z 17010KT 18/18 A3004 RMK A01 T01820182  RH  100%=      5-min Rain = 0
KGO1 251432Z 17008KT 18/18 A3004 RMK A01 T01830183  RH  100%=      5-min Rain = 0
KGO1 251433Z 17011KT 18/18 A3004 RMK A01 T01830183  RH  100%=      5-min Rain = 0
KGO1 251434Z 17010KT 18/18 A3004 RMK A01 T01830183  RH  100%=      5-min Rain = 0
KGO1 251435Z 17012KT 18/18 A3004 RMK A01 T01830183  RH  100%=      5-min Rain = 0
KGO1 251436Z 17011KT 18/18 A3004 RMK A01 T01830183  RH  100%=      5-min Rain = 0
KGO1 251437Z 16009KT 18/18 A3004 RMK A01 T01820182  RH  100%=      5-min Rain = 0
KGO1 251438Z 17009KT 18/18 A3004 RMK A01 T01820182  RH  100%=      5-min Rain = 0
KGO1 251439Z 17010KT 18/18 A3004 RMK A01 T01820182  RH  100%=      5-min Rain = 0
KGO1 251440Z 17010KT 18/18 A3004 RMK A01 T01830183  RH  100%=      5-min Rain = 0
KGO1 251441Z 16009KT 18/18 A3004 RMK A01 T01830183  RH  100%=      5-min Rain = 0
KGO1 251442Z 17009KT 18/18 A3004 RMK A01 T01830184  RH  100%=      5-min Rain = 0
KGO1 251443Z 17007KT 18/18 A3004 RMK A01 T01830183  RH  100%=      5-min Rain = 0
KGO1 251444Z 17007KT 18/18 A3004 RMK A01 T01840184  RH  100%=      5-min Rain = 0
KGO1 251445Z 18008KT 19/19 A3004 RMK A01 T01850185  RH  100%=      5-min Rain = 0
KGO1 251446Z 18008KT 19/19 A3004 RMK A01 T01850185  RH  100%=      5-min Rain = 0
KGO1 251447Z 18007KT 19/19 A3004 RMK A01 T01850185  RH  100%=      5-min Rain = 0
KGO1 251448Z 17007KT 19/19 A3004 RMK A01 T01850185  RH  100%=      5-min Rain = 0
KGO1 251449Z 17007KT 19/19 A3004 RMK A01 T01850185  RH  100%=      5-min Rain = 0
KGO1 251450Z 17008KT 19/19 A3004 RMK A01 T01850185  RH  100%=      5-min Rain = 0
KGO1 251451Z 18008KT 19/19 A3004 RMK A01 T01850185  RH  100%=      5-min Rain = 0
KGO1 251452Z 17006KT 19/19 A3004 RMK A01 T01850185  RH  100%=      5-min Rain = 0
KGO1 251453Z 17008KT 19/19 A3004 RMK A01 T01850185  RH  100%=      5-min Rain = 0
KGO1 251454Z 18007KT 19/19 A3004 RMK A01 T01850185  RH  100%=      5-min Rain = 0
KGO1 251455Z 18006KT 19/19 A3004 RMK A01 T01850186  RH  100%=      5-min Rain = 0
KGO1 251456Z 18006KT 19/19 A3004 RMK A01 T01860186  RH  100%=      5-min Rain = 0
KGO1 251457Z 17006KT 19/19 A3004 RMK A01 T01860186  RH  100%=      5-min Rain = 0
KGO1 251458Z 18007KT 19/19 A3004 RMK A01 T01860187  RH  100%=      5-min Rain = 0
KGO1 251459Z 16009KT 19/19 A3004 RMK A01 T01870187  RH  100%=      5-min Rain = 0
KGO1 251500Z 18007KT 19/19 A3004 RMK A01 T01870187  RH  100%=      5-min Rain = 0
KGO1 251501Z 18008KT 19/19 A3004 RMK A01 T01880188  RH  100%=      5-min Rain = 0
KGO1 251502Z 17007KT 19/19 A3004 RMK A01 T01880188  RH  100%=      5-min Rain = 0
KGO1 251503Z 18008KT 19/19 A3004 RMK A01 T01880189  RH  100%=      5-min Rain = 0
KGO1 251504Z 19010KT 19/19 A3004 RMK A01 T01890189  RH  100%=      5-min Rain = 0
KGO1 251505Z 18008KT 19/19 A3004 RMK A01 T01890189  RH  100%=      5-min Rain = 0
KGO1 251506Z 18008KT 19/19 A3004 RMK A01 T01890189  RH  100%=      5-min Rain = 0
KGO1 251507Z 17009KT 19/19 A3004 RMK A01 T01900190  RH  100%=      5-min Rain = 0
KGO1 251508Z 18008KT 19/19 A3004 RMK A01 T01900190  RH  100%=      5-min Rain = 0
KGO1 251509Z 18010KT 19/19 A3004 RMK A01 T01900190  RH  100%=      5-min Rain = 0
KGO1 251510Z 17010KT 19/19 A3004 RMK A01 T01890190  RH  100%=      5-min Rain = 0
KGO1 251511Z 17009KT 19/19 A3004 RMK A01 T01890189  RH  100%=      5-min Rain = 0
KGO1 251512Z 17009KT 19/19 A3004 RMK A01 T01890189  RH  100%=      5-min Rain = 0
KGO1 251513Z 17008KT 19/19 A3004 RMK A01 T01900190  RH  100%=      5-min Rain = 0
KGO1 251514Z 17009KT 19/19 A3004 RMK A01 T01900190  RH  100%=      5-min Rain = 0
KGO1 251515Z 17010KT 19/19 A3004 RMK A01 T01900191  RH  100%=      5-min Rain = 0
KGO1 251516Z 17010KT 19/19 A3004 RMK A01 T01900190  RH  100%=      5-min Rain = 0
KGO1 251517Z 16009KT 19/19 A3004 RMK A01 T01900190  RH  100%=      5-min Rain = 0
KGO1 251518Z 17009KT 19/19 A3004 RMK A01 T01900190  RH  100%=      5-min Rain = 0
KGO1 251519Z 17009KT 19/19 A3004 RMK A01 T01900190  RH  100%=      5-min Rain = 0
KGO1 251520Z 17009KT 19/19 A3004 RMK A01 T01900190  RH  100%=      5-min Rain = 0
KGO1 251521Z 17009KT 19/19 A3004 RMK A01 T01910191  RH  100%=      5-min Rain = 0
KGO1 251522Z 17011KT 19/19 A3004 RMK A01 T01910192  RH  100%=      5-min Rain = 0
KGO1 251523Z 17010KT 19/19 A3004 RMK A01 T01920192  RH  100%=      5-min Rain = 0
KGO1 251524Z 17010KT 19/19 A3004 RMK A01 T01920192  RH  100%=      5-min Rain = 0
KGO1 251525Z 16009KT 19/19 A3004 RMK A01 T01920192  RH  100%=      5-min Rain = 0
KGO1 251526Z 17009KT 19/19 A3004 RMK A01 T01920192  RH  100%=      5-min Rain = 0
KGO1 251527Z 16011KT 19/19 A3004 RMK A01 T01920192  RH  100%=      5-min Rain = 0
KGO1 251528Z 16009KT 19/19 A3004 RMK A01 T01920192  RH  100%=      5-min Rain = 0
KGO1 251529Z 16010KT 19/19 A3004 RMK A01 T01920192  RH  100%=      5-min Rain = 0
KGO1 251530Z 15011KT 19/19 A3004 RMK A01 T01930193  RH  100%=      5-min Rain = 0
KGO1 251531Z 16011KT 19/19 A3004 RMK A01 T01920192  RH  100%=      5-min Rain = 0
KGO1 251532Z 16011KT 19/19 A3004 RMK A01 T01920192  RH  100%=      5-min Rain = 0
KGO1 251533Z 16011KT 19/19 A3004 RMK A01 T01920192  RH  100%=      5-min Rain = 0
KGO1 251534Z 16011KT 19/19 A3004 RMK A01 T01920192  RH  100%=      5-min Rain = 0
KGO1 251535Z 16012KT 19/19 A3004 RMK A01 T01920192  RH  100%=      5-min Rain = 0
KGO1 251536Z 15012KT 19/19 A3004 RMK A01 T01920192  RH  100%=      5-min Rain = 0
KGO1 251537Z 15013KT 19/19 A3004 RMK A01 T01920192  RH  100%=      5-min Rain = 0
KGO1 251538Z 16013KT 19/19 A3004 RMK A01 T01910191  RH  100%=      5-min Rain = 0
KGO1 251539Z 15012KT 19/19 A3004 RMK A01 T01910191  RH  100%=      5-min Rain = 0
KGO1 251540Z 16013KT 19/19 A3004 RMK A01 T01910191  RH  100%=      5-min Rain = 0
KGO1 251541Z 16012KT 19/19 A3004 RMK A01 T01910191  RH  100%=      5-min Rain = 0
KGO1 251542Z 16011KT 19/19 A3004 RMK A01 T01910191  RH  100%=      5-min Rain = 0
KGO1 251543Z 16012KT 19/19 A3004 RMK A01 T01910191  RH  100%=      5-min Rain = 0
KGO1 251544Z 16011KT 19/19 A3004 RMK A01 T01910191  RH  100%=      5-min Rain = 0
KGO1 251545Z 16013KT 19/19 A3004 RMK A01 T01910191  RH  100%=      5-min Rain = 0
KGO1 251546Z 16011KT 19/19 A3004 RMK A01 T01910191  RH  100%=      5-min Rain = 0
KGO1 251547Z 16010KT 19/19 A3004 RMK A01 T01910191  RH  100%=      5-min Rain = 0
KGO1 251548Z 16010KT 19/19 A3004 RMK A01 T01910191  RH  100%=      5-min Rain = 0
KGO1 251549Z 15010KT 19/19 A3004 RMK A01 T01910191  RH  100%=      5-min Rain = 0
KGO1 251550Z 15012KT 19/19 A3004 RMK A01 T01900191  RH  100%=      5-min Rain = 0
KGO1 251551Z 16012KT 19/19 A3004 RMK A01 T01900190  RH  100%=      5-min Rain = 0
KGO1 251552Z 15010KT 19/19 A3004 RMK A01 T01900190  RH  100%=      5-min Rain = 0
KGO1 251553Z 15010KT 19/19 A3004 RMK A01 T01900190  RH  100%=      5-min Rain = 0
KGO1 251554Z 15009KT 19/19 A3004 RMK A01 T01900190  RH  100%=      5-min Rain = 0
KGO1 251555Z 15013KT 19/19 A3004 RMK A01 T01900190  RH  100%=      5-min Rain = 0
KGO1 251556Z 15013KT 19/19 A3004 RMK A01 T01900190  RH  100%=      5-min Rain = 0
KGO1 251557Z 15011KT 19/19 A3004 RMK A01 T01890189  RH  100%=      5-min Rain = 0
KGO1 251558Z 16011KT 19/19 A3004 RMK A01 T01890189  RH  100%=      5-min Rain = 0
KGO1 251559Z 16012KT 19/19 A3004 RMK A01 T01890189  RH  100%=      5-min Rain = 0
KGO1 251600Z 16010KT 19/19 A3004 RMK A01 T01890189  RH  100%=      5-min Rain = 0
KGO1 251601Z 15009KT 19/19 A3004 RMK A01 T01890189  RH  100%=      5-min Rain = 0
KGO1 251602Z 15009KT 19/19 A3004 RMK A01 T01890189  RH  100%=      5-min Rain = 0
KGO1 251603Z 15009KT 19/19 A3004 RMK A01 T01890189  RH  100%=      5-min Rain = 0
KGO1 251604Z 16010KT 19/19 A3004 RMK A01 T01890189  RH  100%=      5-min Rain = 0
KGO1 251605Z 15010KT 19/19 A3004 RMK A01 T01890190  RH  100%=      5-min Rain = 0
KGO1 251606Z 14009KT 19/19 A3004 RMK A01 T01890189  RH  100%=      5-min Rain = 0
KGO1 251607Z 15009KT 19/19 A3004 RMK A01 T01890189  RH  100%=      5-min Rain = 0
KGO1 251608Z 15009KT 19/19 A3004 RMK A01 T01890189  RH  100%=      5-min Rain = 0
KGO1 251609Z 15009KT 19/19 A3004 RMK A01 T01890189  RH  100%=      5-min Rain = 0
KGO1 251610Z 15009KT 19/19 A3004 RMK A01 T01890189  RH  100%=      5-min Rain = 0
KGO1 251611Z 16010KT 19/19 A3004 RMK A01 T01890189  RH  100%=      5-min Rain = 0
KGO1 251612Z 15010KT 19/19 A3004 RMK A01 T01890189  RH  100%=      5-min Rain = 0
KGO1 251613Z 16011KT 19/19 A3004 RMK A01 T01890189  RH  100%=      5-min Rain = 0
KGO1 251614Z 16008KT 19/19 A3004 RMK A01 T01890189  RH  100%=      5-min Rain = 0
KGO1 251615Z 16008KT 19/19 A3004 RMK A01 T01890189  RH  100%=      5-min Rain = 0
KGO1 251616Z 16007KT 19/19 A3004 RMK A01 T01890190  RH  100%=      5-min Rain = 0
KGO1 251617Z 15008KT 19/19 A3004 RMK A01 T01900190  RH  100%=      5-min Rain = 0
KGO1 251618Z 15008KT 19/19 A3004 RMK A01 T01900190  RH  100%=      5-min Rain = 0
KGO1 251619Z 15009KT 19/19 A3004 RMK A01 T01900190  RH  100%=      5-min Rain = 0
KGO1 251620Z 17008KT 19/19 A3004 RMK A01 T01900190  RH  100%=      5-min Rain = 0
KGO1 251621Z 16008KT 19/19 A3004 RMK A01 T01900190  RH  100%=      5-min Rain = 0
KGO1 251622Z 15008KT 19/19 A3004 RMK A01 T01910191  RH  100%=      5-min Rain = 0
KGO1 251623Z 17008KT 19/19 A3004 RMK A01 T01910191  RH  100%=      5-min Rain = 0
KGO1 251624Z 16006KT 19/19 A3004 RMK A01 T01910192  RH  100%=      5-min Rain = 0
KGO1 251625Z 16006KT 19/19 A3004 RMK A01 T01920192  RH  100%=      5-min Rain = 0
KGO1 251626Z 16005KT 19/19 A3004 RMK A01 T01930193  RH  100%=      5-min Rain = 0
KGO1 251627Z 16007KT 19/19 A3004 RMK A01 T01930193  RH  100%=      5-min Rain = 0
KGO1 251628Z 16008KT 19/19 A3004 RMK A01 T01930193  RH  100%=      5-min Rain = 0
KGO1 251629Z 16007KT 19/19 A3004 RMK A01 T01930193  RH  100%=      5-min Rain = 0
KGO1 251630Z 16009KT 19/19 A3004 RMK A01 T01940194  RH  100%=      5-min Rain = 0
KGO1 251631Z 16007KT 19/19 A3004 RMK A01 T01940194  RH  100%=      5-min Rain = 0
KGO1 251632Z 17008KT 19/19 A3004 RMK A01 T01940194  RH  100%=      5-min Rain = 0
KGO1 251633Z 16011KT 19/19 A3004 RMK A01 T01940194  RH  100%=      5-min Rain = 0
KGO1 251634Z 16010KT 19/19 A3004 RMK A01 T01940194  RH  100%=      5-min Rain = 0
KGO1 251635Z 16008KT 19/19 A3004 RMK A01 T01940194  RH  100%=      5-min Rain = 0
KGO1 251636Z 17010KT 20/20 A3004 RMK A01 T01950195  RH  100%=      5-min Rain = 0
KGO1 251637Z 17008KT 20/20 A3004 RMK A01 T01950196  RH  100%=      5-min Rain = 0
KGO1 251638Z 17008KT 20/20 A3004 RMK A01 T01960196  RH  100%=      5-min Rain = 0
KGO1 251639Z 16010KT 20/20 A3004 RMK A01 T01960196  RH  100%=      5-min Rain = 0
KGO1 251640Z 16009KT 20/20 A3004 RMK A01 T01960196  RH  100%=      5-min Rain = 0
KGO1 251641Z 16009KT 20/20 A3004 RMK A01 T01960196  RH  100%=      5-min Rain = 0
KGO1 251642Z 16009KT 20/20 A3004 RMK A01 T01970197  RH  100%=      5-min Rain = 0
KGO1 251643Z 17009KT 20/20 A3004 RMK A01 T01960196  RH  100%=      5-min Rain = 0
KGO1 251644Z 17010KT 20/20 A3004 RMK A01 T01960196  RH  100%=      5-min Rain = 0
KGO1 251645Z 16010KT 20/20 A3004 RMK A01 T01970197  RH  100%=      5-min Rain = 0
KGO1 251646Z 17009KT 20/20 A3004 RMK A01 T01970198  RH  100%=      5-min Rain = 0
KGO1 251647Z 16009KT 20/20 A3004 RMK A01 T01980198  RH  100%=      5-min Rain = 0
KGO1 251648Z 16007KT 20/20 A3004 RMK A01 T01980198  RH  100%=      5-min Rain = 0
KGO1 251649Z 16009KT 20/20 A3004 RMK A01 T01980198  RH  100%=      5-min Rain = 0
KGO1 251650Z 15010KT 20/20 A3004 RMK A01 T01980199  RH  100%=      5-min Rain = 0
KGO1 251651Z 16010KT 20/20 A3004 RMK A01 T01990199  RH  100%=      5-min Rain = 0
KGO1 251652Z 16011KT 20/20 A3004 RMK A01 T01990199  RH  100%=      5-min Rain = 0
KGO1 251653Z 16009KT 20/20 A3004 RMK A01 T01990199  RH  100%=      5-min Rain = 0
KGO1 251654Z 15008KT 20/20 A3004 RMK A01 T02000200  RH  100%=      5-min Rain = 0
KGO1 251655Z 16009KT 20/20 A3004 RMK A01 T02000200  RH  100%=      5-min Rain = 0
KGO1 251656Z 15008KT 20/20 A3004 RMK A01 T02000200  RH  100%=      5-min Rain = 0
KGO1 251657Z 15008KT 20/20 A3004 RMK A01 T02000200  RH  100%=      5-min Rain = 0
KGO1 251658Z 17009KT 20/20 A3004 RMK A01 T02000200  RH  100%=      5-min Rain = 0
KGO1 251659Z 16007KT 20/20 A3004 RMK A01 T02000201  RH  100%=      5-min Rain = 0
KGO1 251700Z 16007KT 20/20 A3004 RMK A01 T02010201  RH  100%=      5-min Rain = 0
KGO1 251701Z 16005KT 20/20 A3004 RMK A01 T02020202  RH  100%=      5-min Rain = 0
KGO1 251702Z 16007KT 20/20 A3004 RMK A01 T02020202  RH  100%=      5-min Rain = 0
KGO1 251703Z 15007KT 20/20 A3004 RMK A01 T02030203  RH  100%=      5-min Rain = 0
KGO1 251704Z 16009KT 20/20 A3004 RMK A01 T02030203  RH  100%=      5-min Rain = 0
KGO1 251705Z 16008KT 20/20 A3004 RMK A01 T02030203  RH  100%=      5-min Rain = 0
KGO1 251706Z 16009KT 20/20 A3004 RMK A01 T02030203  RH  100%=      5-min Rain = 0
KGO1 251707Z 15010KT 20/20 A3004 RMK A01 T02040204  RH  100%=      5-min Rain = 0
KGO1 251708Z 16009KT 20/20 A3004 RMK A01 T02040204  RH  100%=      5-min Rain = 0
KGO1 251709Z 16008KT 20/20 A3004 RMK A01 T02040204  RH  100%=      5-min Rain = 0
KGO1 251710Z 16008KT 21/21 A3004 RMK A01 T02050205  RH  100%=      5-min Rain = 0
KGO1 251711Z 17012KT 21/21 A3004 RMK A01 T02070207  RH  100%=      5-min Rain = 0
KGO1 251712Z 17011KT 21/21 A3004 RMK A01 T02070207  RH  100%=      5-min Rain = 0
KGO1 251713Z 17010KT 21/21 A3004 RMK A01 T02070207  RH  100%=      5-min Rain = 0
KGO1 251714Z 16010KT 21/21 A3004 RMK A01 T02070207  RH  100%=      5-min Rain = 0
KGO1 251715Z 17011KT 21/21 A3004 RMK A01 T02070207  RH  100%=      5-min Rain = 0
KGO1 251716Z 16009KT 21/21 A3004 RMK A01 T02070207  RH  100%=      5-min Rain = 0
KGO1 251717Z 16009KT 21/21 A3004 RMK A01 T02080208  RH  100%=      5-min Rain = 0
KGO1 251718Z 16010KT 21/21 A3004 RMK A01 T02090209  RH  100%=      5-min Rain = 0
KGO1 251719Z 16011KT 21/21 A3004 RMK A01 T02090209  RH  100%=      5-min Rain = 0
KGO1 251720Z 16011KT 21/21 A3004 RMK A01 T02090209  RH  100%=      5-min Rain = 0
KGO1 251721Z 16011KT 21/21 A3004 RMK A01 T02090209  RH  100%=      5-min Rain = 0
KGO1 251722Z 16012KT 21/21 A3004 RMK A01 T02100209  RH  099%=      5-min Rain = 0
KGO1 251723Z 16011KT 21/21 A3004 RMK A01 T02100208  RH  099%=      5-min Rain = 0
KGO1 251724Z 17011KT 21/21 A3004 RMK A01 T02100208  RH  099%=      5-min Rain = 0
KGO1 251725Z 17010KT 21/21 A3004 RMK A01 T02110209  RH  099%=      5-min Rain = 0
KGO1 251726Z 18011KT 21/21 A3004 RMK A01 T02120209  RH  098%=      5-min Rain = 0
KGO1 251727Z 17012KT 21/21 A3004 RMK A01 T02130209  RH  098%=      5-min Rain = 0
KGO1 251728Z 17013KT 21/21 A3004 RMK A01 T02130208  RH  097%=      5-min Rain = 0
KGO1 251729Z 17009KT 21/21 A3004 RMK A01 T02140210  RH  097%=      5-min Rain = 0
KGO1 251730Z 16010KT 22/21 A3004 RMK A01 T02160213  RH  098%=      5-min Rain = 0
KGO1 251731Z 17011KT 22/21 A3004 RMK A01 T02180212  RH  096%=      5-min Rain = 0
KGO1 251732Z 17013KT 22/21 A3004 RMK A01 T02180210  RH  095%=      5-min Rain = 0
KGO1 251733Z 17013KT 22/21 A3004 RMK A01 T02190209  RH  094%=      5-min Rain = 0
KGO1 251734Z 16011KT 22/21 A3004 RMK A01 T02190209  RH  094%=      5-min Rain = 0
KGO1 251735Z 17013KT 22/21 A3004 RMK A01 T02190209  RH  094%=      5-min Rain = 0
KGO1 251736Z 16013KT 22/21 A3004 RMK A01 T02190207  RH  093%=      5-min Rain = 0
KGO1 251737Z 16014KT 22/21 A3004 RMK A01 T02200208  RH  093%=      5-min Rain = 0
KGO1 251738Z 16014KT 22/21 A3004 RMK A01 T02200208  RH  093%=      5-min Rain = 0
KGO1 251739Z 16013KT 22/21 A3004 RMK A01 T02200208  RH  093%=      5-min Rain = 0
KGO1 251740Z 16012KT 22/21 A3004 RMK A01 T02200208  RH  093%=      5-min Rain = 0
KGO1 251741Z 16013KT 22/21 A3004 RMK A01 T02200207  RH  092%=      5-min Rain = 0
KGO1 251742Z 16011KT 22/21 A3004 RMK A01 T02200207  RH  092%=      5-min Rain = 0
KGO1 251743Z 16010KT 22/21 A3004 RMK A01 T02200208  RH  093%=      5-min Rain = 0
KGO1 251744Z 16011KT 22/21 A3004 RMK A01 T02200209  RH  093%=      5-min Rain = 0
KGO1 251745Z 15011KT 22/21 A3004 RMK A01 T02190207  RH  093%=      5-min Rain = 0
KGO1 251746Z 16011KT 22/21 A3004 RMK A01 T02180206  RH  093%=      5-min Rain = 0
KGO1 251747Z 16010KT 22/21 A3004 RMK A01 T02170206  RH  093%=      5-min Rain = 0
KGO1 251748Z 16009KT 22/21 A3004 RMK A01 T02170207  RH  094%=      5-min Rain = 0
KGO1 251749Z 16009KT 22/21 A3004 RMK A01 T02170208  RH  095%=      5-min Rain = 0
KGO1 251750Z 15011KT 22/21 A3004 RMK A01 T02180208  RH  094%=      5-min Rain = 0
KGO1 251751Z 16011KT 22/21 A3004 RMK A01 T02180207  RH  093%=      5-min Rain = 0
KGO1 251752Z 16010KT 22/21 A3004 RMK A01 T02180208  RH  094%=      5-min Rain = 0
KGO1 251753Z 15009KT 22/21 A3004 RMK A01 T02180208  RH  094%=      5-min Rain = 0
KGO1 251754Z 15010KT 22/21 A3004 RMK A01 T02180209  RH  094%=      5-min Rain = 0
KGO1 251755Z 15010KT 22/21 A3004 RMK A01 T02180208  RH  094%=      5-min Rain = 0
KGO1 251756Z 16009KT 22/21 A3004 RMK A01 T02180208  RH  094%=      5-min Rain = 0
KGO1 251757Z 16009KT 22/21 A3004 RMK A01 T02170207  RH  094%=      5-min Rain = 0
KGO1 251758Z 16011KT 22/21 A3004 RMK A01 T02170207  RH  094%=      5-min Rain = 0
KGO1 251759Z 16010KT 22/21 A3004 RMK A01 T02160205  RH  094%=      5-min Rain = 0
KGO1 251800Z 16009KT 22/21 A3004 RMK A01 T02150206  RH  095%=      5-min Rain = 0
KGO1 251801Z 16008KT 21/21 A3003 RMK A01 T02140206  RH  095%=      5-min Rain = 0
KGO1 251802Z 16007KT 21/21 A3003 RMK A01 T02140207  RH  096%=      5-min Rain = 0
KGO1 251803Z 15007KT 21/21 A3003 RMK A01 T02130206  RH  096%=      5-min Rain = 0
KGO1 251804Z 16008KT 21/21 A3003 RMK A01 T02130206  RH  096%=      5-min Rain = 0
KGO1 251805Z 16008KT 21/21 A3003 RMK A01 T02140207  RH  096%=      5-min Rain = 0
KGO1 251806Z 15009KT 21/21 A3003 RMK A01 T02140208  RH  096%=      5-min Rain = 0
KGO1 251807Z 15009KT 21/21 A3003 RMK A01 T02140206  RH  095%=      5-min Rain = 0
KGO1 251808Z 15008KT 21/21 A3003 RMK A01 T02140206  RH  095%=      5-min Rain = 0
KGO1 251809Z 15008KT 21/21 A3003 RMK A01 T02140207  RH  096%=      5-min Rain = 0
KGO1 251810Z 15008KT 22/21 A3003 RMK A01 T02150207  RH  095%=      5-min Rain = 0
KGO1 251811Z 16007KT 22/21 A3003 RMK A01 T02160208  RH  095%=      5-min Rain = 0
KGO1 251812Z 15006KT 22/21 A3003 RMK A01 T02170209  RH  095%=      5-min Rain = 0
KGO1 251813Z 15007KT 22/21 A3003 RMK A01 T02170209  RH  095%=      5-min Rain = 0
KGO1 251814Z 15007KT 22/21 A3003 RMK A01 T02180211  RH  095%=      5-min Rain = 0
KGO1 251815Z 15008KT 22/21 A3003 RMK A01 T02190210  RH  094%=      5-min Rain = 0
KGO1 251816Z 15008KT 22/21 A3003 RMK A01 T02200208  RH  093%=      5-min Rain = 0
KGO1 251817Z 15006KT 22/21 A3003 RMK A01 T02200209  RH  094%=      5-min Rain = 0
KGO1 251818Z 15007KT 22/21 A3003 RMK A01 T02210212  RH  095%=      5-min Rain = 0
KGO1 251819Z 15007KT 22/21 A3003 RMK A01 T02220213  RH  094%=      5-min Rain = 0
KGO1 251820Z 15007KT 22/21 A3003 RMK A01 T02230211  RH  093%=      5-min Rain = 0
KGO1 251821Z 16006KT 22/21 A3003 RMK A01 T02240212  RH  093%=      5-min Rain = 0
KGO1 251822Z 17007KT 23/21 A3003 RMK A01 T02250210  RH  091%=      5-min Rain = 0
KGO1 251823Z 17009KT 23/21 A3003 RMK A01 T02250211  RH  092%=      5-min Rain = 0
KGO1 251824Z 17008KT 23/21 A3003 RMK A01 T02260211  RH  092%=      5-min Rain = 0
KGO1 251825Z 16008KT 23/21 A3003 RMK A01 T02260211  RH  091%=      5-min Rain = 0
KGO1 251826Z 16008KT 23/21 A3002 RMK A01 T02260210  RH  091%=      5-min Rain = 0
KGO1 251827Z 17007KT 23/21 A3002 RMK A01 T02270211  RH  091%=      5-min Rain = 0
KGO1 251828Z 17008KT 23/22 A3002 RMK A01 T02290215  RH  092%=      5-min Rain = 0
KGO1 251829Z 16007KT 23/21 A3002 RMK A01 T02300213  RH  090%=      5-min Rain = 0
KGO1 251830Z 15009KT 23/21 A3002 RMK A01 T02300212  RH  090%=      5-min Rain = 0
KGO1 251831Z 17008KT 23/21 A3002 RMK A01 T02300213  RH  090%=      5-min Rain = 0
KGO1 251832Z 16008KT 23/22 A3003 RMK A01 T02320217  RH  091%=      5-min Rain = 0
KGO1 251833Z 17009KT 23/21 A3003 RMK A01 T02330212  RH  088%=      5-min Rain = 0
KGO1 251834Z 16008KT 23/21 A3003 RMK A01 T02320213  RH  089%=      5-min Rain = 0
KGO1 251835Z 16010KT 23/22 A3002 RMK A01 T02320215  RH  090%=      5-min Rain = 0
KGO1 251836Z 17007KT 23/22 A3002 RMK A01 T02330215  RH  090%=      5-min Rain = 0
KGO1 251837Z 16009KT 23/22 A3002 RMK A01 T02330215  RH  090%=      5-min Rain = 0
KGO1 251838Z 18010KT 23/21 A3002 RMK A01 T02320212  RH  089%=      5-min Rain = 0
KGO1 251839Z 18009KT 23/21 A3002 RMK A01 T02300211  RH  089%=      5-min Rain = 0
KGO1 251840Z 17010KT 23/21 A3002 RMK A01 T02280210  RH  089%=      5-min Rain = 0
KGO1 251841Z 16009KT 23/21 A3002 RMK A01 T02280210  RH  090%=      5-min Rain = 0
KGO1 251842Z 16010KT 23/21 A3002 RMK A01 T02270210  RH  090%=      5-min Rain = 0
KGO1 251843Z 16014KT 23/21 A3002 RMK A01 T02260211  RH  091%=      5-min Rain = 0
KGO1 251844Z 14012KT 22/21 A3002 RMK A01 T02240211  RH  092%=      5-min Rain = 0
KGO1 251845Z 14010KT 22/21 A3001 RMK A01 T02220212  RH  094%=      5-min Rain = 0
KGO1 251846Z 13011KT 22/21 A3001 RMK A01 T02190212  RH  096%=      5-min Rain = 0
KGO1 251847Z 13011KT 22/21 A3001 RMK A01 T02180211  RH  096%=      5-min Rain = 0.01
KGO1 251848Z 14010KT 22/21 A3001 RMK A01 T02170211  RH  096%=      5-min Rain = 0
KGO1 251849Z 15010KT 22/21 A3001 RMK A01 T02170213  RH  098%=      5-min Rain = 0.01
KGO1 251850Z 14011KT 22/21 A30 RMK A01 T02170214  RH  098%=      5-min Rain = 0
KGO1 251851Z 15011KT 22/22 A30 RMK A01 T02170215  RH  099%=      5-min Rain = 0
KGO1 251852Z 14011KT 22/22 A30 RMK A01 T02180217  RH  099%=      5-min Rain = 0
KGO1 251853Z 15013KT 22/22 A30 RMK A01 T02190217  RH  099%=      5-min Rain = 0
KGO1 251854Z 15013KT 22/22 A3001 RMK A01 T02190216  RH  098%=      5-min Rain = 0
KGO1 251855Z 15014KT 22/22 A3001 RMK A01 T02200215  RH  097%=      5-min Rain = 0
KGO1 251856Z 14011KT 22/22 A30 RMK A01 T02200215  RH  097%=      5-min Rain = 0
KGO1 251857Z 15012KT 22/22 A30 RMK A01 T02200215  RH  097%=      5-min Rain = 0
KGO1 251858Z 14012KT 22/22 A30 RMK A01 T02200215  RH  097%=      5-min Rain = 0.01
KGO1 251859Z 15010KT 22/22 A30 RMK A01 T02200215  RH  097%=      5-min Rain = 0
KGO1 251900Z 15013KT 22/22 A30 RMK A01 T02200216  RH  097%=      5-min Rain = 0
KGO1 251901Z 16012KT 22/22 A30 RMK A01 T02200215  RH  097%=      5-min Rain = 0
KGO1 251902Z 15014KT 22/22 A30 RMK A01 T02210216  RH  097%=      5-min Rain = 0
KGO1 251903Z 16014KT 22/21 A30 RMK A01 T02200213  RH  096%=      5-min Rain = 0
KGO1 251904Z 16014G19KT 22/21 A30 RMK A01 T02200213  RH  096%=      5-min Rain = 0
KGO1 251905Z 16017KT 22/21 A2999 RMK A01 T02190211  RH  095%=      5-min Rain = 0
KGO1 251906Z 16015KT 22/21 A30 RMK A01 T02190211  RH  095%=      5-min Rain = 0
KGO1 251907Z 16016KT 22/21 A30 RMK A01 T02180212  RH  096%=      5-min Rain = 0
KGO1 251908Z 16016KT 22/21 A30 RMK A01 T02180212  RH  096%=      5-min Rain = 0
KGO1 251909Z 16014KT 22/21 A30 RMK A01 T02170211  RH  096%=      5-min Rain = 0.01
KGO1 251910Z 16013KT 22/21 A2999 RMK A01 T02170212  RH  097%=      5-min Rain = 0
KGO1 251911Z 16012KT 22/21 A2999 RMK A01 T02170212  RH  097%=      5-min Rain = 0
KGO1 251912Z 15012KT 22/21 A30 RMK A01 T02170212  RH  097%=      5-min Rain = 0
KGO1 251913Z 15012KT 22/21 A30 RMK A01 T02170213  RH  098%=      5-min Rain = 0
KGO1 251914Z 15011KT 22/21 A30 RMK A01 T02160212  RH  098%=      5-min Rain = 0
KGO1 251915Z 15013KT 22/21 A30 RMK A01 T02160212  RH  098%=      5-min Rain = 0
KGO1 251916Z 15013KT 22/21 A2999 RMK A01 T02160212  RH  097%=      5-min Rain = 0
KGO1 251917Z 15013KT 22/21 A2999 RMK A01 T02170211  RH  097%=      5-min Rain = 0
KGO1 251918Z 16010KT 22/21 A2999 RMK A01 T02170212  RH  097%=      5-min Rain = 0
KGO1 251919Z 16012KT 22/21 A2999 RMK A01 T02170212  RH  097%=      5-min Rain = 0
KGO1 251920Z 16014KT 22/21 A30 RMK A01 T02170211  RH  096%=      5-min Rain = 0
KGO1 251921Z 16013KT 22/21 A30 RMK A01 T02170210  RH  096%=      5-min Rain = 0
KGO1 251922Z 16013KT 22/21 A30 RMK A01 T02170211  RH  096%=      5-min Rain = 0
KGO1 251923Z 15012KT 22/21 A2999 RMK A01 T02170211  RH  096%=      5-min Rain = 0
KGO1 251924Z 15011KT 22/21 A2999 RMK A01 T02170212  RH  097%=      5-min Rain = 0
KGO1 251925Z 15010KT 22/21 A2999 RMK A01 T02170213  RH  097%=      5-min Rain = 0
KGO1 251926Z 15010KT 22/21 A30 RMK A01 T02170213  RH  098%=      5-min Rain = 0
KGO1 251927Z 15012KT 22/21 A30 RMK A01 T02160213  RH  098%=      5-min Rain = 0
KGO1 251928Z 16010KT 22/21 A30 RMK A01 T02160213  RH  098%=      5-min Rain = 0
KGO1 251929Z 16012KT 22/21 A30 RMK A01 T02160213  RH  098%=      5-min Rain = 0
KGO1 251930Z 16012KT 22/21 A30 RMK A01 T02160213  RH  098%=      5-min Rain = 0
KGO1 251931Z 16012KT 22/21 A30 RMK A01 T02160211  RH  097%=      5-min Rain = 0
KGO1 251932Z 16011KT 22/21 A30 RMK A01 T02160212  RH  097%=      5-min Rain = 0
KGO1 251933Z 16010KT 22/21 A30 RMK A01 T02160212  RH  098%=      5-min Rain = 0
KGO1 251934Z 17013KT 22/21 A30 RMK A01 T02160212  RH  097%=      5-min Rain = 0
KGO1 251935Z 16013KT 22/21 A30 RMK A01 T02160211  RH  097%=      5-min Rain = 0
KGO1 251936Z 16012KT 22/21 A30 RMK A01 T02160211  RH  097%=      5-min Rain = 0
KGO1 251937Z 16010KT 22/21 A30 RMK A01 T02160211  RH  097%=      5-min Rain = 0
KGO1 251938Z 16010KT 22/21 A30 RMK A01 T02160212  RH  097%=      5-min Rain = 0
KGO1 251939Z 16014KT 22/21 A30 RMK A01 T02160212  RH  097%=      5-min Rain = 0
KGO1 251940Z 16013KT 22/21 A30 RMK A01 T02160211  RH  097%=      5-min Rain = 0
KGO1 251941Z 16013KT 22/21 A30 RMK A01 T02160210  RH  097%=      5-min Rain = 0
KGO1 251942Z 16013KT 22/21 A30 RMK A01 T02160210  RH  097%=      5-min Rain = 0
KGO1 251943Z 15012KT 22/21 A30 RMK A01 T02160211  RH  097%=      5-min Rain = 0
KGO1 251944Z 16011KT 22/21 A2999 RMK A01 T02160212  RH  097%=      5-min Rain = 0
KGO1 251945Z 15012KT 22/21 A2999 RMK A01 T02160212  RH  097%=      5-min Rain = 0
KGO1 251946Z 15011KT 22/21 A2999 RMK A01 T02160212  RH  097%=      5-min Rain = 0
KGO1 251947Z 15010KT 22/21 A2999 RMK A01 T02160212  RH  097%=      5-min Rain = 0
KGO1 251948Z 15010KT 22/21 A2999 RMK A01 T02150212  RH  098%=      5-min Rain = 0
KGO1 251949Z 15011KT 22/21 A2999 RMK A01 T02150212  RH  098%=      5-min Rain = 0
KGO1 251950Z 15009KT 22/21 A2999 RMK A01 T02150213  RH  098%=      5-min Rain = 0
KGO1 251951Z 15012KT 22/21 A2999 RMK A01 T02150213  RH  099%=      5-min Rain = 0
KGO1 251952Z 15014KT 22/21 A2999 RMK A01 T02150212  RH  098%=      5-min Rain = 0
KGO1 251953Z 15013KT 22/21 A2999 RMK A01 T02150212  RH  098%=      5-min Rain = 0
KGO1 251954Z 15013KT 22/21 A2999 RMK A01 T02150212  RH  098%=      5-min Rain = 0
KGO1 251955Z 15012KT 22/21 A2999 RMK A01 T02150211  RH  098%=      5-min Rain = 0
KGO1 251956Z 15010KT 22/21 A2999 RMK A01 T02150211  RH  098%=      5-min Rain = 0
KGO1 251957Z 15008KT 22/21 A2998 RMK A01 T02160212  RH  098%=      5-min Rain = 0
KGO1 251958Z 16010KT 22/21 A2999 RMK A01 T02150212  RH  098%=      5-min Rain = 0
KGO1 251959Z 16012KT 22/21 A2999 RMK A01 T02150213  RH  099%=      5-min Rain = 0
KGO1 252000Z 16011KT 22/21 A2998 RMK A01 T02150212  RH  098%=      5-min Rain = 0
KGO1 252001Z 15011KT 22/21 A2998 RMK A01 T02150212  RH  098%=      5-min Rain = 0
KGO1 252002Z 16012KT 21/21 A2998 RMK A01 T02140211  RH  098%=      5-min Rain = 0
KGO1 252003Z 17013KT 21/21 A2999 RMK A01 T02140211  RH  098%=      5-min Rain = 0
KGO1 252004Z 17013KT 21/21 A2999 RMK A01 T02140211  RH  098%=      5-min Rain = 0
KGO1 252005Z 17012KT 22/21 A2999 RMK A01 T02150211  RH  098%=      5-min Rain = 0
KGO1 252006Z 17012KT 21/21 A2999 RMK A01 T02140211  RH  098%=      5-min Rain = 0
KGO1 252007Z 16014KT 22/21 A2999 RMK A01 T02150211  RH  098%=      5-min Rain = 0
KGO1 252008Z 16013KT 21/21 A2999 RMK A01 T02140211  RH  098%=      5-min Rain = 0
KGO1 252009Z 17011KT 21/21 A2999 RMK A01 T02140210  RH  098%=      5-min Rain = 0
KGO1 252010Z 16010KT 21/21 A2999 RMK A01 T02140211  RH  098%=      5-min Rain = 0
KGO1 252011Z 16010KT 21/21 A2999 RMK A01 T02140211  RH  098%=      5-min Rain = 0
KGO1 252012Z 16011KT 21/21 A2998 RMK A01 T02140211  RH  098%=      5-min Rain = 0
KGO1 252013Z 16012KT 21/21 A2998 RMK A01 T02130210  RH  098%=      5-min Rain = 0
KGO1 252014Z 15010KT 21/21 A2998 RMK A01 T02140210  RH  098%=      5-min Rain = 0
KGO1 252015Z 15010KT 21/21 A2998 RMK A01 T02140210  RH  098%=      5-min Rain = 0
KGO1 252016Z 15011KT 21/21 A2998 RMK A01 T02140210  RH  098%=      5-min Rain = 0
KGO1 252017Z 15010KT 21/21 A2997 RMK A01 T02140210  RH  098%=      5-min Rain = 0
KGO1 252018Z 14011KT 21/21 A2997 RMK A01 T02130210  RH  098%=      5-min Rain = 0
KGO1 252019Z 15012KT 21/21 A2997 RMK A01 T02130210  RH  098%=      5-min Rain = 0
KGO1 252020Z 15012KT 21/21 A2997 RMK A01 T02130210  RH  098%=      5-min Rain = 0
KGO1 252021Z 15012KT 21/21 A2997 RMK A01 T02130210  RH  098%=      5-min Rain = 0
KGO1 252022Z 15013KT 21/21 A2997 RMK A01 T02120209  RH  098%=      5-min Rain = 0
KGO1 252023Z 15011KT 21/21 A2997 RMK A01 T02130210  RH  098%=      5-min Rain = 0
KGO1 252024Z 15013KT 21/21 A2997 RMK A01 T02130210  RH  098%=      5-min Rain = 0
KGO1 252025Z 14010KT 21/21 A2997 RMK A01 T02120209  RH  098%=      5-min Rain = 0
KGO1 252026Z 15014KT 21/21 A2997 RMK A01 T02120210  RH  098%=      5-min Rain = 0
KGO1 252027Z 14013KT 21/21 A2997 RMK A01 T02120209  RH  098%=      5-min Rain = 0
KGO1 252028Z 15011KT 21/21 A2997 RMK A01 T02120209  RH  098%=      5-min Rain = 0
KGO1 252029Z 16011KT 21/21 A2997 RMK A01 T02120209  RH  098%=      5-min Rain = 0
KGO1 252030Z 16010KT 21/21 A2997 RMK A01 T02120209  RH  098%=      5-min Rain = 0
KGO1 252031Z 15012KT 21/21 A2997 RMK A01 T02120209  RH  098%=      5-min Rain = 0
KGO1 252032Z 15012KT 21/21 A2997 RMK A01 T02120209  RH  098%=      5-min Rain = 0
KGO1 252033Z 14011KT 21/21 A2997 RMK A01 T02120209  RH  098%=      5-min Rain = 0
KGO1 252034Z 14013KT 21/21 A2996 RMK A01 T02110209  RH  099%=      5-min Rain = 0
KGO1 252035Z 15013KT 21/21 A2997 RMK A01 T02110209  RH  099%=      5-min Rain = 0
KGO1 252036Z 15012G18KT 21/21 A2996 RMK A01 T02110209  RH  099%=      5-min Rain = 0
KGO1 252037Z 15013KT 21/21 A2996 RMK A01 T02110209  RH  099%=      5-min Rain = 0
KGO1 252038Z 15012KT 21/21 A2996 RMK A01 T02100209  RH  099%=      5-min Rain = 0
KGO1 252039Z 15012KT 21/21 A2996 RMK A01 T02100209  RH  099%=      5-min Rain = 0
KGO1 252040Z 15011KT 21/21 A2996 RMK A01 T02100209  RH  099%=      5-min Rain = 0
KGO1 252041Z 15012KT 21/21 A2996 RMK A01 T02100209  RH  100%=      5-min Rain = 0
KGO1 252042Z 15015KT 21/21 A2996 RMK A01 T02090208  RH  099%=      5-min Rain = 0
KGO1 252043Z 16014KT 21/21 A2996 RMK A01 T02100208  RH  099%=      5-min Rain = 0
KGO1 252044Z 16014KT 21/21 A2996 RMK A01 T02100208  RH  099%=      5-min Rain = 0
KGO1 252045Z 16011KT 21/21 A2996 RMK A01 T02100209  RH  099%=      5-min Rain = 0
KGO1 252046Z 16013KT 21/21 A2996 RMK A01 T02100209  RH  099%=      5-min Rain = 0
KGO1 252047Z 16014KT 21/21 A2996 RMK A01 T02090209  RH  100%=      5-min Rain = 0
KGO1 252048Z 16013KT 21/21 A2997 RMK A01 T02090209  RH  100%=      5-min Rain = 0.01
KGO1 252049Z 16014KT 21/21 A2997 RMK A01 T02090209  RH  100%=      5-min Rain = 0
KGO1 252050Z 16012KT 21/21 A2997 RMK A01 T02090209  RH  100%=      5-min Rain = 0
KGO1 252051Z 17011KT 21/21 A2997 RMK A01 T02090210  RH  100%=      5-min Rain = 0
KGO1 252052Z 18011KT 21/21 A2997 RMK A01 T02090209  RH  100%=      5-min Rain = 0
KGO1 252053Z 18008KT 21/21 A2998 RMK A01 T02090209  RH  100%=      5-min Rain = 0
KGO1 252054Z 19009KT 21/21 A2998 RMK A01 T02090209  RH  100%=      5-min Rain = 0.01
KGO1 252055Z 19009KT 21/21 A2999 RMK A01 T02090209  RH  100%=      5-min Rain = 0.01
KGO1 252056Z 20010KT 21/21 A2999 RMK A01 T02080209  RH  100%=      5-min Rain = 0.01
KGO1 252057Z 21010KT 21/21 A30 RMK A01 T02090209  RH  100%=      5-min Rain = 0.02
KGO1 252058Z 22011KT 21/21 A30 RMK A01 T02080208  RH  100%=      5-min Rain = 0.01
KGO1 252059Z 22012KT 21/21 A30 RMK A01 T02080208  RH  100%=      5-min Rain = 0.01
KGO1 252100Z 22013KT 21/21 A30 RMK A01 T02070208  RH  100%=      5-min Rain = 0.03
KGO1 252101Z 20013KT 21/21 A3001 RMK A01 T02080208  RH  100%=      5-min Rain = 0.04
KGO1 252102Z 18011KT 21/21 A30 RMK A01 T02070207  RH  100%=      5-min Rain = 0.05
KGO1 252103Z 18008KT 21/21 A2999 RMK A01 T02060207  RH  100%=      5-min Rain = 0.04
KGO1 252104Z 18009KT 21/21 A2999 RMK A01 T02060206  RH  100%=      5-min Rain = 0.01
KGO1 252105Z 18013KT 20/20 A2999 RMK A01 T02030200  RH  098%=      5-min Rain = 0
KGO1 252106Z 18012KT 20/19 A2999 RMK A01 T02010193  RH  095%=      5-min Rain = 0
KGO1 252107Z 19012KT 20/20 A30 RMK A01 T02000197  RH  098%=      5-min Rain = 0.01
KGO1 252108Z 20012KT 20/20 A30 RMK A01 T02020202  RH  100%=      5-min Rain = 0
KGO1 252109Z 20010KT 20/20 A2999 RMK A01 T02030203  RH  100%=      5-min Rain = 0
KGO1 252110Z 20009KT 20/20 A2999 RMK A01 T02040204  RH  100%=      5-min Rain = 0
KGO1 252111Z 21008KT 20/20 A2999 RMK A01 T02040204  RH  100%=      5-min Rain = 0
KGO1 252112Z 21010KT 20/20 A2999 RMK A01 T02040204  RH  100%=      5-min Rain = 0
KGO1 252113Z 21011KT 20/20 A2999 RMK A01 T02040204  RH  100%=      5-min Rain = 0
KGO1 252114Z 21011KT 21/21 A2999 RMK A01 T02050205  RH  100%=      5-min Rain = 0
KGO1 252115Z 22010KT 21/21 A30 RMK A01 T02050205  RH  100%=      5-min Rain = 0
KGO1 252116Z 22011KT 21/21 A30 RMK A01 T02050206  RH  100%=      5-min Rain = 0.01
KGO1 252117Z 22010KT 21/21 A30 RMK A01 T02050206  RH  100%=      5-min Rain = 0
KGO1 252118Z 21012KT 21/21 A3001 RMK A01 T02050205  RH  100%=      5-min Rain = 0
KGO1 252119Z 21013KT 21/21 A3001 RMK A01 T02050205  RH  100%=      5-min Rain = 0
KGO1 252120Z 21010KT 21/21 A30 RMK A01 T02060206  RH  100%=      5-min Rain = 0
KGO1 252121Z 21009KT 21/21 A30 RMK A01 T02060206  RH  100%=      5-min Rain = 0
KGO1 252122Z 21007KT 21/21 A2999 RMK A01 T02060206  RH  100%=      5-min Rain = 0.01
KGO1 252123Z 21007KT 21/21 A2998 RMK A01 T02060206  RH  100%=      5-min Rain = 0
KGO1 252124Z 21007KT 21/21 A2997 RMK A01 T02060206  RH  100%=      5-min Rain = 0
KGO1 252125Z 21005KT 21/21 A2996 RMK A01 T02060206  RH  100%=      5-min Rain = 0
KGO1 252126Z 21003KT 21/21 A2995 RMK A01 T02060206  RH  100%=      5-min Rain = 0
KGO1 252127Z 22001KT 21/21 A2994 RMK A01 T02060206  RH  100%=      5-min Rain = 0
KGO1 252128Z 24001KT 21/21 A2994 RMK A01 T02060206  RH  100%=      5-min Rain = 0
KGO1 252129Z 21003KT 21/21 A2994 RMK A01 T02060206  RH  100%=      5-min Rain = 0.01
KGO1 252130Z 22006KT 21/21 A2995 RMK A01 T02060206  RH  100%=      5-min Rain = 0
KGO1 252131Z 21008KT 21/21 A2996 RMK A01 T02060206  RH  100%=      5-min Rain = 0
KGO1 252132Z 21008KT 21/21 A2996 RMK A01 T02060206  RH  100%=      5-min Rain = 0
KGO1 252133Z 19008KT 21/21 A2996 RMK A01 T02070207  RH  100%=      5-min Rain = 0
KGO1 252134Z 20008KT 21/21 A2995 RMK A01 T02070207  RH  100%=      5-min Rain = 0
KGO1 252135Z 19009KT 21/21 A2995 RMK A01 T02070207  RH  100%=      5-min Rain = 0
KGO1 252136Z 19010KT 21/21 A2995 RMK A01 T02080208  RH  100%=      5-min Rain = 0
KGO1 252137Z 18010KT 21/21 A2994 RMK A01 T02090209  RH  100%=      5-min Rain = 0
KGO1 252138Z 18010KT 21/21 A2994 RMK A01 T02100210  RH  100%=      5-min Rain = 0
KGO1 252139Z 17009KT 21/21 A2994 RMK A01 T02100210  RH  100%=      5-min Rain = 0
KGO1 252140Z 18009KT 21/21 A2993 RMK A01 T02100210  RH  100%=      5-min Rain = 0
KGO1 252141Z 17010KT 21/21 A2994 RMK A01 T02100210  RH  100%=      5-min Rain = 0
KGO1 252142Z 18012KT 21/21 A2994 RMK A01 T02100210  RH  100%=      5-min Rain = 0
KGO1 252143Z 19012KT 21/21 A2994 RMK A01 T02100210  RH  100%=      5-min Rain = 0
KGO1 252144Z 19008KT 21/21 A2994 RMK A01 T02100210  RH  100%=      5-min Rain = 0
KGO1 252145Z 19009KT 21/21 A2994 RMK A01 T02090209  RH  100%=      5-min Rain = 0
KGO1 252146Z 20008KT 21/21 A2994 RMK A01 T02100210  RH  100%=      5-min Rain = 0
KGO1 252147Z 18009KT 21/21 A2994 RMK A01 T02100210  RH  100%=      5-min Rain = 0
KGO1 252148Z 19010KT 21/21 A2995 RMK A01 T02090209  RH  100%=      5-min Rain = 0
KGO1 252149Z 20011KT 21/21 A2995 RMK A01 T02090209  RH  100%=      5-min Rain = 0
KGO1 252150Z 20011KT 21/21 A2995 RMK A01 T02090208  RH  099%=      5-min Rain = 0
KGO1 252151Z 21010KT 21/21 A2996 RMK A01 T02090208  RH  099%=      5-min Rain = 0
KGO1 252152Z 22013KT 21/21 A2996 RMK A01 T02090207  RH  099%=      5-min Rain = 0
KGO1 252153Z 21010KT 21/21 A2996 RMK A01 T02090206  RH  098%=      5-min Rain = 0
KGO1 252154Z 22010KT 21/21 A2996 RMK A01 T02100205  RH  097%=      5-min Rain = 0
KGO1 252155Z 20013KT 21/21 A2996 RMK A01 T02100206  RH  098%=      5-min Rain = 0
KGO1 252156Z 20010KT 21/21 A2997 RMK A01 T02100207  RH  098%=      5-min Rain = 0
KGO1 252157Z 20008KT 21/21 A2997 RMK A01 T02100208  RH  099%=      5-min Rain = 0
KGO1 252158Z 20008KT 21/21 A2997 RMK A01 T02090208  RH  099%=      5-min Rain = 0
KGO1 252159Z 18008KT 21/21 A2997 RMK A01 T02090209  RH  100%=      5-min Rain = 0
KGO1 252200Z 20010KT 21/21 A2997 RMK A01 T02090208  RH  099%=      5-min Rain = 0
KGO1 252201Z 20010KT 21/21 A2997 RMK A01 T02090208  RH  099%=      5-min Rain = 0
KGO1 252202Z 20009KT 21/21 A2997 RMK A01 T02090208  RH  099%=      5-min Rain = 0
KGO1 252203Z 20008KT 21/21 A2997 RMK A01 T02090208  RH  099%=      5-min Rain = 0
KGO1 252204Z 20013KT 21/21 A2997 RMK A01 T02090207  RH  099%=      5-min Rain = 0
KGO1 252205Z 20012KT 21/21 A2998 RMK A01 T02090207  RH  098%=      5-min Rain = 0
KGO1 252206Z 20012KT 21/21 A2998 RMK A01 T02090205  RH  097%=      5-min Rain = 0
KGO1 252207Z 20011KT 21/21 A2998 RMK A01 T02100205  RH  097%=      5-min Rain = 0
KGO1 252208Z 19009KT 21/21 A2998 RMK A01 T02100205  RH  097%=      5-min Rain = 0
KGO1 252209Z 19008KT 21/21 A2998 RMK A01 T02100205  RH  097%=      5-min Rain = 0
KGO1 252210Z 19007KT 21/21 A2998 RMK A01 T02100205  RH  097%=      5-min Rain = 0
KGO1 252211Z 19007KT 21/21 A2998 RMK A01 T02110207  RH  097%=      5-min Rain = 0
KGO1 252212Z 19008KT 21/21 A2998 RMK A01 T02110205  RH  096%=      5-min Rain = 0
KGO1 252213Z 20008KT 21/20 A2998 RMK A01 T02120204  RH  095%=      5-min Rain = 0
KGO1 252214Z 19005KT 21/21 A2997 RMK A01 T02130207  RH  096%=      5-min Rain = 0
KGO1 252215Z 18005KT 21/21 A2997 RMK A01 T02140206  RH  095%=      5-min Rain = 0
KGO1 252216Z 18006KT 21/20 A2997 RMK A01 T02140201  RH  092%=      5-min Rain = 0
KGO1 252217Z 21004KT 22/21 A2997 RMK A01 T02160210  RH  097%=      5-min Rain = 0
KGO1 252218Z 23004KT 22/21 A2997 RMK A01 T02170214  RH  098%=      5-min Rain = 0
KGO1 252219Z 25004KT 22/21 A2997 RMK A01 T02180210  RH  095%=      5-min Rain = 0
KGO1 252220Z 26005KT 22/21 A2997 RMK A01 T02170208  RH  094%=      5-min Rain = 0
KGO1 252221Z 26006KT 22/21 A2998 RMK A01 T02170205  RH  093%=      5-min Rain = 0
KGO1 252222Z 28006KT 22/20 A2998 RMK A01 T02160201  RH  092%=      5-min Rain = 0
KGO1 252223Z 28006KT 22/20 A2998 RMK A01 T02150204  RH  093%=      5-min Rain = 0
KGO1 252224Z 29006KT 22/21 A2998 RMK A01 T02150205  RH  094%=      5-min Rain = 0
KGO1 252225Z 28007KT 22/21 A2998 RMK A01 T02150208  RH  095%=      5-min Rain = 0
KGO1 252226Z 29007KT 22/21 A2998 RMK A01 T02150206  RH  095%=      5-min Rain = 0
KGO1 252227Z 31007KT 21/21 A2997 RMK A01 T02140205  RH  094%=      5-min Rain = 0
KGO1 252228Z 32009KT 21/21 A2997 RMK A01 T02140206  RH  095%=      5-min Rain = 0
KGO1 252229Z 32012KT 21/21 A2996 RMK A01 T02140206  RH  095%=      5-min Rain = 0
KGO1 252230Z 33013G18KT 21/21 A2996 RMK A01 T02130207  RH  096%=      5-min Rain = 0
KGO1 252231Z 32016KT 21/21 A2997 RMK A01 T02120206  RH  096%=      5-min Rain = 0
KGO1 252232Z 31014KT 21/20 A2999 RMK A01 T02110203  RH  095%=      5-min Rain = 0
KGO1 252233Z 31014KT 21/20 A30 RMK A01 T02090199  RH  094%=      5-min Rain = 0
KGO1 252234Z 33014KT 21/19 A3001 RMK A01 T02060186  RH  088%=      5-min Rain = 0
KGO1 252235Z 31013KT 20/18 A3001 RMK A01 T02000177  RH  087%=      5-min Rain = 0
KGO1 252236Z 32013G18KT 19/17 A3001 RMK A01 T01940173  RH  088%=      5-min Rain = 0
KGO1 252237Z 32015KT 19/17 A30 RMK A01 T01890169  RH  088%=      5-min Rain = 0
KGO1 252238Z 33011KT 18/17 A30 RMK A01 T01840168  RH  090%=      5-min Rain = 0
KGO1 252239Z 34009KT 18/17 A30 RMK A01 T01820169  RH  092%=      5-min Rain = 0
KGO1 252240Z 35010KT 18/17 A2999 RMK A01 T01800169  RH  094%=      5-min Rain = 0
KGO1 252241Z 00010KT 18/17 A2999 RMK A01 T01780169  RH  094%=      5-min Rain = 0
KGO1 252242Z 00009KT 18/17 A2998 RMK A01 T01770169  RH  095%=      5-min Rain = 0
KGO1 252243Z 01008KT 18/17 A2997 RMK A01 T01760169  RH  096%=      5-min Rain = 0
KGO1 252244Z 00006KT 18/17 A2998 RMK A01 T01760169  RH  096%=      5-min Rain = 0
KGO1 252245Z 34009KT 18/17 A2998 RMK A01 T01750170  RH  097%=      5-min Rain = 0
KGO1 252246Z 35008KT 18/17 A2998 RMK A01 T01750170  RH  097%=      5-min Rain = 0
KGO1 252247Z 34011KT 17/17 A2998 RMK A01 T01740169  RH  097%=      5-min Rain = 0
KGO1 252248Z 35010KT 17/17 A2998 RMK A01 T01740168  RH  096%=      5-min Rain = 0
KGO1 252249Z 36009KT 17/17 A2999 RMK A01 T01730167  RH  096%=      5-min Rain = 0
KGO1 252250Z 35010KT 17/17 A2999 RMK A01 T01730166  RH  096%=      5-min Rain = 0
KGO1 252251Z 35010KT 17/17 A2999 RMK A01 T01720166  RH  096%=      5-min Rain = 0
KGO1 252252Z 34007KT 17/17 A2999 RMK A01 T01710165  RH  096%=      5-min Rain = 0
KGO1 252253Z 34007KT 17/17 A2999 RMK A01 T01700166  RH  097%=      5-min Rain = 0
KGO1 252254Z 34008KT 17/17 A2999 RMK A01 T01700166  RH  098%=      5-min Rain = 0
KGO1 252255Z 36005KT 17/17 A2999 RMK A01 T01700166  RH  098%=      5-min Rain = 0
KGO1 252256Z 01005KT 17/17 A2999 RMK A01 T01690166  RH  098%=      5-min Rain = 0
KGO1 252257Z 02004KT 17/17 A2999 RMK A01 T01690166  RH  098%=      5-min Rain = 0
KGO1 252258Z 03004KT 17/17 A2999 RMK A01 T01690166  RH  098%=      5-min Rain = 0
KGO1 252259Z 03006KT 17/17 A2999 RMK A01 T01690167  RH  099%=      5-min Rain = 0.01
KGO1 252300Z 02005KT 17/17 A2999 RMK A01 T01690167  RH  099%=      5-min Rain = 0
KGO1 252301Z 03006KT 17/17 A2999 RMK A01 T01690167  RH  099%=      5-min Rain = 0
KGO1 252302Z 03006KT 17/17 A2999 RMK A01 T01690167  RH  099%=      5-min Rain = 0
KGO1 252303Z 03007KT 17/17 A2999 RMK A01 T01690167  RH  098%=      5-min Rain = 0
KGO1 252304Z 03005KT 17/17 A2998 RMK A01 T01680165  RH  098%=      5-min Rain = 0
KGO1 252305Z 01003KT 17/17 A2998 RMK A01 T01680165  RH  098%=      5-min Rain = 0
KGO1 252306Z 00003KT 17/17 A2998 RMK A01 T01670165  RH  098%=      5-min Rain = 0.01
KGO1 252307Z 36003KT 17/17 A2998 RMK A01 T01670166  RH  099%=      5-min Rain = 0
KGO1 252308Z 35002KT 17/17 A2999 RMK A01 T01670167  RH  100%=      5-min Rain = 0
KGO1 252309Z 01002KT 17/17 A2999 RMK A01 T01670166  RH  100%=      5-min Rain = 0
KGO1 252310Z 04003KT 17/17 A2999 RMK A01 T01670166  RH  100%=      5-min Rain = 0
KGO1 252311Z 02003KT 17/17 A30 RMK A01 T01660166  RH  100%=      5-min Rain = 0
KGO1 252312Z 01002KT 17/17 A30 RMK A01 T01660166  RH  100%=      5-min Rain = 0
KGO1 252313Z 01003KT 17/17 A2999 RMK A01 T01660166  RH  100%=      5-min Rain = 0
KGO1 252314Z 02004KT 17/17 A2999 RMK A01 T01660166  RH  100%=      5-min Rain = 0
KGO1 252315Z 03005KT 17/17 A2998 RMK A01 T01660167  RH  100%=      5-min Rain = 0
KGO1 252316Z 03008KT 17/17 A2998 RMK A01 T01660166  RH  100%=      5-min Rain = 0
KGO1 252317Z 03008KT 17/17 A2997 RMK A01 T01660167  RH  100%=      5-min Rain = 0
KGO1 252318Z 03006KT 17/17 A2997 RMK A01 T01670167  RH  100%=      5-min Rain = 0
KGO1 252319Z 02006KT 17/17 A2998 RMK A01 T01670167  RH  100%=      5-min Rain = 0
KGO1 252320Z 02004KT 17/17 A2998 RMK A01 T01670167  RH  100%=      5-min Rain = 0
KGO1 252321Z 02005KT 17/17 A2998 RMK A01 T01670167  RH  100%=      5-min Rain = 0
KGO1 252322Z 02006KT 17/17 A2998 RMK A01 T01670167  RH  100%=      5-min Rain = 0
KGO1 252323Z 01006KT 17/17 A2998 RMK A01 T01670167  RH  100%=      5-min Rain = 0
KGO1 252324Z 02007KT 17/17 A2998 RMK A01 T01670167  RH  100%=      5-min Rain = 0
KGO1 252325Z 02007KT 17/17 A2998 RMK A01 T01670167  RH  100%=      5-min Rain = 0
KGO1 252326Z 03007KT 17/17 A2998 RMK A01 T01670167  RH  100%=      5-min Rain = 0
KGO1 252327Z 03006KT 17/17 A2998 RMK A01 T01670167  RH  100%=      5-min Rain = 0.01
KGO1 252328Z 02006KT 17/17 A2998 RMK A01 T01670168  RH  100%=      5-min Rain = 0
KGO1 252329Z 00004KT 17/17 A2999 RMK A01 T01680168  RH  100%=      5-min Rain = 0
KGO1 252330Z 35005KT 17/17 A2999 RMK A01 T01680168  RH  100%=      5-min Rain = 0
KGO1 252331Z 35005KT 17/17 A2999 RMK A01 T01680168  RH  100%=      5-min Rain = 0
KGO1 252332Z 34005KT 17/17 A2999 RMK A01 T01690169  RH  100%=      5-min Rain = 0
KGO1 252333Z 34005KT 17/17 A2999 RMK A01 T01690169  RH  100%=      5-min Rain = 0
KGO1 252334Z 35005KT 17/17 A30 RMK A01 T01690169  RH  100%=      5-min Rain = 0
KGO1 252335Z 00004KT 17/17 A2999 RMK A01 T01690169  RH  100%=      5-min Rain = 0
KGO1 252336Z 01004KT 17/17 A2999 RMK A01 T01690169  RH  100%=      5-min Rain = 0
KGO1 252337Z 01004KT 17/17 A2999 RMK A01 T01690168  RH  099%=      5-min Rain = 0
KGO1 252338Z 01004KT 17/17 A2999 RMK A01 T01700169  RH  100%=      5-min Rain = 0
KGO1 252339Z 36003KT 17/17 A2999 RMK A01 T01700169  RH  100%=      5-min Rain = 0
KGO1 252340Z 35003KT 17/17 A2999 RMK A01 T01700169  RH  100%=      5-min Rain = 0
KGO1 252341Z 35002KT 17/17 A2999 RMK A01 T01700169  RH  100%=      5-min Rain = 0
KGO1 252342Z 35001KT 17/17 A2999 RMK A01 T01690169  RH  100%=      5-min Rain = 0
KGO1 252343Z 35001KT 17/17 A2999 RMK A01 T01690168  RH  100%=      5-min Rain = 0
KGO1 252344Z 35001KT 17/17 A2999 RMK A01 T01690169  RH  100%=      5-min Rain = 0
KGO1 252345Z 02001KT 17/17 A2999 RMK A01 T01690169  RH  100%=      5-min Rain = 0
KGO1 252346Z 03002KT 17/17 A2998 RMK A01 T01690169  RH  100%=      5-min Rain = 0
KGO1 252347Z 03002KT 17/17 A2998 RMK A01 T01690169  RH  100%=      5-min Rain = 0
KGO1 252348Z 04002KT 17/17 A2998 RMK A01 T01690168  RH  099%=      5-min Rain = 0
KGO1 252349Z 04001KT 17/17 A2998 RMK A01 T01690168  RH  099%=      5-min Rain = 0
KGO1 252350Z 00000KT 17/17 A2999 RMK A01 T01690168  RH  099%=      5-min Rain = 0
KGO1 252351Z 11001KT 17/17 A2999 RMK A01 T01690169  RH  100%=      5-min Rain = 0
KGO1 252352Z 12003KT 17/17 A2999 RMK A01 T01690169  RH  100%=      5-min Rain = 0
KGO1 252353Z 13003KT 17/17 A2999 RMK A01 T01690169  RH  100%=      5-min Rain = 0
KGO1 252354Z 14003KT 17/17 A2999 RMK A01 T01690169  RH  100%=      5-min Rain = 0
KGO1 252355Z 15003KT 17/17 A2999 RMK A01 T01690169  RH  100%=      5-min Rain = 0
KGO1 252356Z 15003KT 17/17 A2999 RMK A01 T01690169  RH  100%=      5-min Rain = 0
KGO1 252357Z 17004KT 17/17 A2999 RMK A01 T01690169  RH  100%=      5-min Rain = 0
KGO1 252358Z 17007KT 17/17 A2999 RMK A01 T01690169  RH  100%=      5-min Rain = 0
KGO1 252359Z 16009KT 17/17 A30 RMK A01 T01690169  RH  100%=      5-min Rain = 0
KGO1 260000Z 15011KT 17/17 A2999 RMK A01 T01700170  RH  100%=      5-min Rain = 0
KGO1 260001Z 14013KT 17/17 A2999 RMK A01 T01710170  RH  099%=      5-min Rain = 0
KGO1 260002Z 14015KT 17/17 A2998 RMK A01 T01710170  RH  099%=      5-min Rain = 0
KGO1 260003Z 13018KT 17/17 A2997 RMK A01 T01710170  RH  099%=      5-min Rain = 0
KGO1 260004Z 13020KT 17/17 A2996 RMK A01 T01710171  RH  100%=      5-min Rain = 0
KGO1 260005Z 14021KT 17/17 A2996 RMK A01 T01710171  RH  100%=      5-min Rain = 0
KGO1 260006Z 14020KT 17/17 A2995 RMK A01 T01700170  RH  100%=      5-min Rain = 0
KGO1 260007Z 14022KT 17/17 A2995 RMK A01 T01690170  RH  100%=      5-min Rain = 0
KGO1 260008Z 13022KT 17/17 A2994 RMK A01 T01690169  RH  100%=      5-min Rain = 0
KGO1 260009Z 13022KT 17/17 A2994 RMK A01 T01690169  RH  100%=      5-min Rain = 0
KGO1 260010Z 13021KT 17/17 A2993 RMK A01 T01680168  RH  100%=      5-min Rain = 0
KGO1 260011Z 13020KT 17/17 A2992 RMK A01 T01680168  RH  100%=      5-min Rain = 0
KGO1 260012Z 13020KT 17/17 A2992 RMK A01 T01680168  RH  100%=      5-min Rain = 0
KGO1 260013Z 13017KT 17/17 A2992 RMK A01 T01680168  RH  100%=      5-min Rain = 0
KGO1 260014Z 14016KT 17/17 A2992 RMK A01 T01680168  RH  100%=      5-min Rain = 0
KGO1 260015Z 14015KT 17/17 A2992 RMK A01 T01680168  RH  100%=      5-min Rain = 0
KGO1 260016Z 14017KT 17/17 A2992 RMK A01 T01680168  RH  100%=      5-min Rain = 0
KGO1 260017Z 14016KT 17/17 A2991 RMK A01 T01690169  RH  100%=      5-min Rain = 0
KGO1 260018Z 15018KT 17/17 A2992 RMK A01 T01700170  RH  100%=      5-min Rain = 0
KGO1 260019Z 15018KT 17/17 A2991 RMK A01 T01720172  RH  100%=      5-min Rain = 0
KGO1 260020Z 15017KT 17/17 A2992 RMK A01 T01740174  RH  100%=      5-min Rain = 0
KGO1 260021Z 16016KT 18/18 A2992 RMK A01 T01750175  RH  100%=      5-min Rain = 0
KGO1 260022Z 16015KT 18/18 A2993 RMK A01 T01750175  RH  100%=      5-min Rain = 0
KGO1 260023Z 16018KT 18/18 A2993 RMK A01 T01760177  RH  100%=      5-min Rain = 0
KGO1 260024Z 17018G23KT 18/18 A2993 RMK A01 T01770178  RH  100%=      5-min Rain = 0
KGO1 260025Z 16019KT 18/18 A2994 RMK A01 T01790179  RH  100%=      5-min Rain = 0
KGO1 260026Z 16019KT 18/18 A2993 RMK A01 T01800178  RH  099%=      5-min Rain = 0
KGO1 260027Z 16019KT 18/18 A2994 RMK A01 T01800177  RH  098%=      5-min Rain = 0
KGO1 260028Z 16016KT 18/18 A2994 RMK A01 T01810177  RH  098%=      5-min Rain = 0
KGO1 260029Z 16015KT 18/18 A2995 RMK A01 T01810177  RH  098%=      5-min Rain = 0
KGO1 260030Z 16015KT 18/18 A2995 RMK A01 T01810178  RH  098%=      5-min Rain = 0
KGO1 260031Z 16015G20KT 18/18 A2995 RMK A01 T01820178  RH  098%=      5-min Rain = 0
KGO1 260032Z 16017KT 18/18 A2995 RMK A01 T01820178  RH  098%=      5-min Rain = 0
KGO1 260033Z 15019KT 18/18 A2995 RMK A01 T01820177  RH  097%=      5-min Rain = 0
KGO1 260034Z 15020KT 18/18 A2995 RMK A01 T01820176  RH  096%=      5-min Rain = 0
KGO1 260035Z 15021KT 18/18 A2995 RMK A01 T01830175  RH  095%=      5-min Rain = 0
KGO1 260036Z 15022KT 18/17 A2995 RMK A01 T01830174  RH  094%=      5-min Rain = 0
KGO1 260037Z 15022KT 18/17 A2994 RMK A01 T01840174  RH  094%=      5-min Rain = 0
KGO1 260038Z 15022G27KT 19/17 A2994 RMK A01 T01850173  RH  093%=      5-min Rain = 0
KGO1 260039Z 15019G24KT 18/17 A2994 RMK A01 T01840171  RH  092%=      5-min Rain = 0
KGO1 260040Z 16019KT 19/17 A2994 RMK A01 T01850171  RH  092%=      5-min Rain = 0
KGO1 260041Z 16022KT 19/17 A2994 RMK A01 T01850170  RH  091%=      5-min Rain = 0
KGO1 260042Z 16022G28KT 19/17 A2994 RMK A01 T01850169  RH  090%=      5-min Rain = 0
KGO1 260043Z 15022KT 19/17 A2993 RMK A01 T01860169  RH  090%=      5-min Rain = 0
KGO1 260044Z 14023G28KT 19/17 A2991 RMK A01 T01860170  RH  091%=      5-min Rain = 0
KGO1 260045Z 14027KT 19/17 A2989 RMK A01 T01850171  RH  092%=      5-min Rain = 0
KGO1 260046Z 14028G33KT 18/17 A2988 RMK A01 T01840171  RH  092%=      5-min Rain = 0
KGO1 260047Z 14024KT 18/17 A2989 RMK A01 T01840171  RH  092%=      5-min Rain = 0
KGO1 260048Z 14023KT 18/17 A2989 RMK A01 T01840172  RH  092%=      5-min Rain = 0
KGO1 260049Z 14021KT 18/17 A299 RMK A01 T01840171  RH  092%=      5-min Rain = 0
KGO1 260050Z 15020KT 19/17 A299 RMK A01 T01850172  RH  092%=      5-min Rain = 0
KGO1 260051Z 15020KT 19/17 A2991 RMK A01 T01850172  RH  092%=      5-min Rain = 0
KGO1 260052Z 16021KT 19/17 A2992 RMK A01 T01850171  RH  092%=      5-min Rain = 0
KGO1 260053Z 16022G28KT 19/17 A2992 RMK A01 T01850170  RH  091%=      5-min Rain = 0
KGO1 260054Z 15022G27KT 19/17 A2992 RMK A01 T01850167  RH  089%=      5-min Rain = 0
KGO1 260055Z 15017KT 19/17 A2992 RMK A01 T01860166  RH  088%=      5-min Rain = 0
KGO1 260056Z 16016KT 19/17 A2992 RMK A01 T01860167  RH  089%=      5-min Rain = 0
KGO1 260057Z 16016KT 19/17 A2993 RMK A01 T01850167  RH  089%=      5-min Rain = 0
KGO1 260058Z 17015KT 18/17 A2993 RMK A01 T01840168  RH  090%=      5-min Rain = 0
KGO1 260059Z 17016KT 18/17 A2993 RMK A01 T01830169  RH  091%=      5-min Rain = 0
KGO1 260100Z 17014KT 18/17 A2993 RMK A01 T01830170  RH  092%=      5-min Rain = 0
KGO1 260101Z 18014KT 18/17 A2993 RMK A01 T01830171  RH  093%=      5-min Rain = 0
KGO1 260102Z 19013KT 18/17 A2994 RMK A01 T01820171  RH  093%=      5-min Rain = 0
KGO1 260103Z 19013KT 18/17 A2994 RMK A01 T01840172  RH  093%=      5-min Rain = 0
KGO1 260104Z 19012KT 19/17 A2994 RMK A01 T01850172  RH  092%=      5-min Rain = 0
KGO1 260105Z 18011KT 19/17 A2994 RMK A01 T01850172  RH  092%=      5-min Rain = 0
KGO1 260106Z 18011KT 19/17 A2994 RMK A01 T01860172  RH  092%=      5-min Rain = 0
KGO1 260107Z 18012KT 19/17 A2994 RMK A01 T01860171  RH  091%=      5-min Rain = 0
KGO1 260108Z 17012KT 19/17 A2993 RMK A01 T01860171  RH  091%=      5-min Rain = 0
KGO1 260109Z 16014KT 19/17 A2992 RMK A01 T01860170  RH  090%=      5-min Rain = 0
KGO1 260110Z 15013KT 19/17 A2991 RMK A01 T01860171  RH  091%=      5-min Rain = 0
KGO1 260111Z 15015KT 19/17 A2991 RMK A01 T01860173  RH  092%=      5-min Rain = 0
KGO1 260112Z 16015KT 19/17 A2992 RMK A01 T01860173  RH  092%=      5-min Rain = 0
KGO1 260113Z 16014KT 19/17 A2992 RMK A01 T01860173  RH  092%=      5-min Rain = 0
KGO1 260114Z 16015G20KT 19/17 A2992 RMK A01 T01860174  RH  093%=      5-min Rain = 0
KGO1 260115Z 16016KT 19/17 A2991 RMK A01 T01860174  RH  093%=      5-min Rain = 0
KGO1 260116Z 17015KT 19/17 A2992 RMK A01 T01860173  RH  092%=      5-min Rain = 0
KGO1 260117Z 17014KT 19/17 A2992 RMK A01 T01860173  RH  093%=      5-min Rain = 0
KGO1 260118Z 17014KT 19/17 A2993 RMK A01 T01860173  RH  092%=      5-min Rain = 0
KGO1 260119Z 17013KT 19/17 A2993 RMK A01 T01860173  RH  092%=      5-min Rain = 0
KGO1 260120Z 17013KT 19/17 A2993 RMK A01 T01860174  RH  093%=      5-min Rain = 0
KGO1 260121Z 18013KT 19/17 A2993 RMK A01 T01860174  RH  093%=      5-min Rain = 0
KGO1 260122Z 18013KT 19/17 A2993 RMK A01 T01850173  RH  093%=      5-min Rain = 0
KGO1 260123Z 18015KT 19/17 A2994 RMK A01 T01850173  RH  093%=      5-min Rain = 0
KGO1 260124Z 18013KT 19/17 A2994 RMK A01 T01860173  RH  092%=      5-min Rain = 0
KGO1 260125Z 18014KT 19/17 A2994 RMK A01 T01860174  RH  092%=      5-min Rain = 0
KGO1 260126Z 17014KT 19/17 A2994 RMK A01 T01860173  RH  092%=      5-min Rain = 0
KGO1 260127Z 18015KT 19/17 A2994 RMK A01 T01860172  RH  092%=      5-min Rain = 0
KGO1 260128Z 18015KT 19/17 A2994 RMK A01 T01860172  RH  091%=      5-min Rain = 0
KGO1 260129Z 17016KT 19/17 A2994 RMK A01 T01870173  RH  091%=      5-min Rain = 0
KGO1 260130Z 18015KT 19/17 A2994 RMK A01 T01860173  RH  092%=      5-min Rain = 0
KGO1 260131Z 18015G20KT 19/17 A2993 RMK A01 T01860173  RH  092%=      5-min Rain = 0
KGO1 260132Z 18015KT 19/17 A2993 RMK A01 T01860174  RH  093%=      5-min Rain = 0
KGO1 260133Z 18017KT 19/17 A2993 RMK A01 T01850174  RH  093%=      5-min Rain = 0
KGO1 260134Z 18014KT 19/17 A2992 RMK A01 T01850174  RH  093%=      5-min Rain = 0
KGO1 260135Z 18016KT 18/17 A2993 RMK A01 T01840174  RH  094%=      5-min Rain = 0
KGO1 260136Z 17020KT 18/18 A2993 RMK A01 T01830175  RH  095%=      5-min Rain = 0
KGO1 260137Z 17020KT 18/18 A2993 RMK A01 T01830175  RH  095%=      5-min Rain = 0
KGO1 260138Z 17017KT 18/18 A2993 RMK A01 T01830175  RH  095%=      5-min Rain = 0
KGO1 260139Z 17017KT 18/18 A2993 RMK A01 T01830176  RH  095%=      5-min Rain = 0
KGO1 260140Z 17018KT 18/18 A2993 RMK A01 T01820176  RH  096%=      5-min Rain = 0
KGO1 260141Z 18017KT 18/18 A2993 RMK A01 T01830176  RH  096%=      5-min Rain = 0
KGO1 260142Z 17015KT 18/18 A2993 RMK A01 T01820176  RH  096%=      5-min Rain = 0
KGO1 260143Z 17015KT 18/18 A2993 RMK A01 T01820177  RH  097%=      5-min Rain = 0
KGO1 260144Z 17014KT 18/18 A2993 RMK A01 T01810177  RH  097%=      5-min Rain = 0
KGO1 260145Z 17014KT 18/18 A2993 RMK A01 T01810177  RH  097%=      5-min Rain = 0
KGO1 260146Z 17013KT 18/18 A2994 RMK A01 T01810177  RH  098%=      5-min Rain = 0
KGO1 260147Z 17012KT 18/18 A2994 RMK A01 T01810177  RH  098%=      5-min Rain = 0
KGO1 260148Z 17011KT 18/18 A2993 RMK A01 T01800178  RH  098%=      5-min Rain = 0
KGO1 260149Z 17011KT 18/18 A2993 RMK A01 T01800178  RH  099%=      5-min Rain = 0
KGO1 260150Z 17013KT 18/18 A2993 RMK A01 T01800178  RH  099%=      5-min Rain = 0
KGO1 260151Z 17014KT 18/18 A2993 RMK A01 T01800179  RH  099%=      5-min Rain = 0
KGO1 260152Z 17013KT 18/18 A2993 RMK A01 T01810180  RH  099%=      5-min Rain = 0
KGO1 260153Z 17012KT 18/18 A2993 RMK A01 T01820180  RH  099%=      5-min Rain = 0
KGO1 260154Z 18010KT 18/18 A2993 RMK A01 T01810180  RH  099%=      5-min Rain = 0
KGO1 260155Z 18011KT 18/18 A2993 RMK A01 T01810180  RH  099%=      5-min Rain = 0
KGO1 260156Z 17011KT 18/18 A2993 RMK A01 T01810180  RH  099%=      5-min Rain = 0
KGO1 260157Z 18012KT 18/18 A2993 RMK A01 T01810180  RH  100%=      5-min Rain = 0
KGO1 260158Z 18014KT 18/18 A2993 RMK A01 T01810181  RH  100%=      5-min Rain = 0
KGO1 260159Z 17014KT 18/18 A2993 RMK A01 T01810181  RH  100%=      5-min Rain = 0
KGO1 260200Z 17014KT 18/18 A2993 RMK A01 T01820182  RH  100%=      5-min Rain = 0
KGO1 260201Z 17013KT 18/18 A2993 RMK A01 T01820182  RH  100%=      5-min Rain = 0
KGO1 260202Z 18013KT 18/18 A2993 RMK A01 T01820182  RH  100%=      5-min Rain = 0
KGO1 260203Z 17014KT 18/18 A2993 RMK A01 T01820182  RH  100%=      5-min Rain = 0
KGO1 260204Z 17013KT 18/18 A2993 RMK A01 T01820182  RH  100%=      5-min Rain = 0
KGO1 260205Z 18012KT 18/18 A2993 RMK A01 T01820182  RH  100%=      5-min Rain = 0
KGO1 260206Z 18012KT 18/18 A2993 RMK A01 T01820182  RH  100%=      5-min Rain = 0
KGO1 260207Z 18013KT 18/18 A2993 RMK A01 T01820182  RH  100%=      5-min Rain = 0
KGO1 260208Z 17012KT 18/18 A2993 RMK A01 T01820182  RH  100%=      5-min Rain = 0
KGO1 260209Z 17012KT 18/18 A2993 RMK A01 T01820182  RH  100%=      5-min Rain = 0
KGO1 260210Z 17012KT 18/18 A2993 RMK A01 T01820182  RH  100%=      5-min Rain = 0
KGO1 260211Z 17012KT 18/18 A2993 RMK A01 T01810181  RH  100%=      5-min Rain = 0
KGO1 260212Z 17011KT 18/18 A2993 RMK A01 T01800180  RH  100%=      5-min Rain = 0
KGO1 260213Z 17012KT 18/18 A2993 RMK A01 T01800180  RH  100%=      5-min Rain = 0
KGO1 260214Z 18011KT 18/18 A2993 RMK A01 T01800180  RH  100%=      5-min Rain = 0
KGO1 260215Z 18011KT 18/18 A2993 RMK A01 T01800180  RH  100%=      5-min Rain = 0
KGO1 260216Z 18011KT 18/18 A2993 RMK A01 T01800180  RH  100%=      5-min Rain = 0
KGO1 260217Z 18011KT 18/18 A2993 RMK A01 T01800180  RH  100%=      5-min Rain = 0
KGO1 260218Z 18012KT 18/18 A2993 RMK A01 T01800180  RH  100%=      5-min Rain = 0
KGO1 260219Z 18011KT 18/18 A2993 RMK A01 T01800181  RH  100%=      5-min Rain = 0
KGO1 260220Z 18012KT 18/18 A2993 RMK A01 T01810181  RH  100%=      5-min Rain = 0
KGO1 260221Z 18010KT 18/18 A2993 RMK A01 T01820181  RH  099%=      5-min Rain = 0
KGO1 260222Z 18010KT 18/18 A2993 RMK A01 T01810180  RH  099%=      5-min Rain = 0
KGO1 260223Z 18011KT 18/18 A2993 RMK A01 T01820179  RH  099%=      5-min Rain = 0
KGO1 260224Z 18011KT 18/18 A2993 RMK A01 T01820179  RH  098%=      5-min Rain = 0
KGO1 260225Z 18012KT 18/18 A2993 RMK A01 T01820178  RH  097%=      5-min Rain = 0
KGO1 260226Z 18012KT 18/18 A2993 RMK A01 T01830176  RH  096%=      5-min Rain = 0
KGO1 260227Z 18011KT 18/18 A2993 RMK A01 T01840175  RH  094%=      5-min Rain = 0
KGO1 260228Z 18012KT 19/17 A2993 RMK A01 T01850173  RH  093%=      5-min Rain = 0
KGO1 260229Z 18012KT 19/17 A2993 RMK A01 T01860173  RH  092%=      5-min Rain = 0
KGO1 260230Z 18012KT 19/17 A2992 RMK A01 T01870172  RH  091%=      5-min Rain = 0
KGO1 260231Z 18012KT 19/17 A2993 RMK A01 T01870172  RH  091%=      5-min Rain = 0
KGO1 260232Z 18012KT 19/17 A2993 RMK A01 T01880172  RH  090%=      5-min Rain = 0
KGO1 260233Z 19013KT 19/17 A2993 RMK A01 T01890170  RH  089%=      5-min Rain = 0
KGO1 260234Z 19013KT 19/17 A2992 RMK A01 T01900169  RH  087%=      5-min Rain = 0
KGO1 260235Z 19013KT 19/17 A2993 RMK A01 T01920167  RH  086%=      5-min Rain = 0
KGO1 260236Z 19013KT 19/17 A2993 RMK A01 T01930166  RH  084%=      5-min Rain = 0
KGO1 260237Z 18013KT 20/17 A2993 RMK A01 T01950166  RH  083%=      5-min Rain = 0
KGO1 260238Z 18012KT 20/17 A2993 RMK A01 T01950166  RH  083%=      5-min Rain = 0
KGO1 260239Z 19012KT 20/17 A2992 RMK A01 T01950166  RH  083%=      5-min Rain = 0
KGO1 260240Z 19014G19KT 20/17 A2992 RMK A01 T01950165  RH  083%=      5-min Rain = 0
KGO1 260241Z 19014KT 20/16 A2992 RMK A01 T01960163  RH  081%=      5-min Rain = 0
KGO1 260242Z 19015KT 20/16 A2992 RMK A01 T01990163  RH  080%=      5-min Rain = 0
KGO1 260243Z 19015KT 20/16 A2992 RMK A01 T02010162  RH  078%=      5-min Rain = 0
KGO1 260244Z 18014KT 20/16 A2992 RMK A01 T02020163  RH  078%=      5-min Rain = 0
KGO1 260245Z 18014KT 20/16 A2992 RMK A01 T02020164  RH  078%=      5-min Rain = 0
KGO1 260246Z 19013KT 20/17 A2993 RMK A01 T02030165  RH  079%=      5-min Rain = 0
KGO1 260247Z 19013KT 20/17 A2993 RMK A01 T02030167  RH  079%=      5-min Rain = 0
KGO1 260248Z 18012KT 20/17 A2993 RMK A01 T02020167  RH  080%=      5-min Rain = 0
KGO1 260249Z 18012KT 20/17 A2993 RMK A01 T02020167  RH  080%=      5-min Rain = 0
KGO1 260250Z 19014KT 20/17 A2993 RMK A01 T02010167  RH  081%=      5-min Rain = 0
KGO1 260251Z 18015KT 20/17 A2993 RMK A01 T02020169  RH  081%=      5-min Rain = 0
KGO1 260252Z 18014KT 20/17 A2993 RMK A01 T02030171  RH  082%=      5-min Rain = 0
KGO1 260253Z 18015KT 20/17 A2993 RMK A01 T02040170  RH  081%=      5-min Rain = 0
KGO1 260254Z 18013KT 21/17 A2993 RMK A01 T02050170  RH  080%=      5-min Rain = 0
KGO1 260255Z 18015KT 21/17 A2993 RMK A01 T02050171  RH  081%=      5-min Rain = 0
KGO1 260256Z 18016KT 21/17 A2993 RMK A01 T02050172  RH  081%=      5-min Rain = 0
KGO1 260257Z 18014G19KT 21/17 A2993 RMK A01 T02060172  RH  081%=      5-min Rain = 0
KGO1 260258Z 18012KT 21/17 A2993 RMK A01 T02070174  RH  082%=      5-min Rain = 0
KGO1 260259Z 18012KT 21/17 A2993 RMK A01 T02050174  RH  082%=      5-min Rain = 0
KGO1 260300Z 18012KT 20/17 A2993 RMK A01 T02040173  RH  082%=      5-min Rain = 0
KGO1 260301Z 18013G18KT 20/17 A2993 RMK A01 T02030173  RH  083%=      5-min Rain = 0
KGO1 260302Z 18015KT 20/18 A2993 RMK A01 T02030175  RH  084%=      5-min Rain = 0
KGO1 260303Z 17017KT 21/18 A2993 RMK A01 T02050178  RH  084%=      5-min Rain = 0
KGO1 260304Z 18015KT 21/18 A2993 RMK A01 T02060179  RH  084%=      5-min Rain = 0
KGO1 260305Z 18016KT 21/18 A2993 RMK A01 T02070179  RH  084%=      5-min Rain = 0
KGO1 260306Z 17015KT 21/18 A2993 RMK A01 T02070180  RH  085%=      5-min Rain = 0
KGO1 260307Z 17015KT 21/18 A2993 RMK A01 T02070180  RH  085%=      5-min Rain = 0
KGO1 260308Z 17014KT 21/18 A2993 RMK A01 T02060180  RH  085%=      5-min Rain = 0
KGO1 260309Z 17014KT 21/18 A2993 RMK A01 T02050179  RH  085%=      5-min Rain = 0
KGO1 260310Z 18015KT 20/18 A2993 RMK A01 T02040179  RH  086%=      5-min Rain = 0
KGO1 260311Z 18014KT 20/18 A2993 RMK A01 T02040179  RH  086%=      5-min Rain = 0
KGO1 260312Z 17015KT 20/18 A2993 RMK A01 T02040179  RH  086%=      5-min Rain = 0
KGO1 260313Z 17014KT 20/18 A2993 RMK A01 T02040180  RH  086%=      5-min Rain = 0
KGO1 260314Z 18013KT 20/18 A2994 RMK A01 T02040180  RH  086%=      5-min Rain = 0
KGO1 260315Z 18013KT 20/18 A2994 RMK A01 T02030181  RH  087%=      5-min Rain = 0
KGO1 260316Z 18013KT 20/18 A2994 RMK A01 T02020181  RH  088%=      5-min Rain = 0
KGO1 260317Z 17015KT 20/18 A2994 RMK A01 T02020182  RH  088%=      5-min Rain = 0
KGO1 260318Z 17013KT 20/18 A2994 RMK A01 T02030182  RH  088%=      5-min Rain = 0
KGO1 260319Z 17012KT 20/18 A2994 RMK A01 T02020182  RH  088%=      5-min Rain = 0
KGO1 260320Z 17013KT 20/18 A2994 RMK A01 T02020182  RH  088%=      5-min Rain = 0
KGO1 260321Z 17013KT 20/18 A2994 RMK A01 T02010182  RH  089%=      5-min Rain = 0
KGO1 260322Z 17014KT 20/18 A2994 RMK A01 T02010182  RH  089%=      5-min Rain = 0
KGO1 260323Z 17013KT 20/18 A2994 RMK A01 T02000182  RH  089%=      5-min Rain = 0
KGO1 260324Z 17013KT 20/18 A2994 RMK A01 T02000182  RH  089%=      5-min Rain = 0
KGO1 260325Z 17015KT 20/18 A2994 RMK A01 T01990182  RH  090%=      5-min Rain = 0
KGO1 260326Z 17014KT 20/18 A2994 RMK A01 T02000183  RH  090%=      5-min Rain = 0
KGO1 260327Z 16013KT 20/18 A2994 RMK A01 T02010184  RH  090%=      5-min Rain = 0
KGO1 260328Z 16014KT 20/18 A2994 RMK A01 T02010184  RH  090%=      5-min Rain = 0
KGO1 260329Z 17014KT 20/18 A2995 RMK A01 T02020184  RH  090%=      5-min Rain = 0
KGO1 260330Z 17014KT 20/18 A2995 RMK A01 T02020184  RH  089%=      5-min Rain = 0
KGO1 260331Z 17014KT 20/18 A2995 RMK A01 T02020184  RH  089%=      5-min Rain = 0
KGO1 260332Z 17013KT 20/19 A2995 RMK A01 T02030185  RH  089%=      5-min Rain = 0
KGO1 260333Z 17014KT 20/18 A2995 RMK A01 T02020184  RH  089%=      5-min Rain = 0
KGO1 260334Z 17016KT 20/19 A2995 RMK A01 T02020185  RH  090%=      5-min Rain = 0
KGO1 260335Z 17015KT 20/19 A2995 RMK A01 T02020185  RH  090%=      5-min Rain = 0
KGO1 260336Z 17014KT 20/19 A2995 RMK A01 T02020185  RH  090%=      5-min Rain = 0
KGO1 260337Z 17015KT 20/19 A2995 RMK A01 T02020185  RH  090%=      5-min Rain = 0
KGO1 260338Z 17014KT 20/19 A2995 RMK A01 T02020185  RH  090%=      5-min Rain = 0
KGO1 260339Z 16014KT 20/19 A2995 RMK A01 T02020185  RH  090%=      5-min Rain = 0
KGO1 260340Z 17015KT 20/19 A2995 RMK A01 T02020185  RH  090%=      5-min Rain = 0
KGO1 260341Z 17015KT 20/19 A2995 RMK A01 T02010185  RH  090%=      5-min Rain = 0
KGO1 260342Z 17014KT 20/19 A2995 RMK A01 T02020185  RH  090%=      5-min Rain = 0
KGO1 260343Z 17015KT 20/19 A2996 RMK A01 T02020185  RH  090%=      5-min Rain = 0
KGO1 260344Z 17016KT 20/19 A2996 RMK A01 T02030187  RH  090%=      5-min Rain = 0
KGO1 260345Z 16015KT 20/19 A2996 RMK A01 T02040187  RH  090%=      5-min Rain = 0
KGO1 260346Z 17015KT 20/19 A2996 RMK A01 T02040186  RH  090%=      5-min Rain = 0
KGO1 260347Z 17015KT 20/19 A2996 RMK A01 T02040186  RH  089%=      5-min Rain = 0
KGO1 260348Z 16014KT 20/19 A2996 RMK A01 T02040186  RH  089%=      5-min Rain = 0
KGO1 260349Z 16015KT 20/19 A2996 RMK A01 T02040186  RH  090%=      5-min Rain = 0
KGO1 260350Z 17016KT 20/19 A2996 RMK A01 T02030186  RH  090%=      5-min Rain = 0
KGO1 260351Z 17014KT 20/19 A2996 RMK A01 T02040186  RH  089%=      5-min Rain = 0
KGO1 260352Z 17014KT 20/19 A2996 RMK A01 T02030185  RH  090%=      5-min Rain = 0
KGO1 260353Z 16013KT 20/19 A2996 RMK A01 T02020185  RH  090%=      5-min Rain = 0
KGO1 260354Z 16014KT 20/19 A2996 RMK A01 T02010185  RH  090%=      5-min Rain = 0
KGO1 260355Z 16014KT 20/18 A2996 RMK A01 T02000184  RH  091%=      5-min Rain = 0
KGO1 260356Z 16012KT 20/18 A2996 RMK A01 T02000184  RH  091%=      5-min Rain = 0
KGO1 260357Z 16013KT 20/18 A2996 RMK A01 T01990184  RH  091%=      5-min Rain = 0
KGO1 260358Z 16013KT 20/18 A2996 RMK A01 T01980184  RH  091%=      5-min Rain = 0
KGO1 260359Z 17013KT 20/18 A2997 RMK A01 T01970183  RH  092%=      5-min Rain = 0
KGO1 260400Z 16013KT 20/18 A2997 RMK A01 T01970183  RH  092%=      5-min Rain = 0
KGO1 260401Z 16013KT 20/18 A2997 RMK A01 T01960183  RH  092%=      5-min Rain = 0
KGO1 260402Z 16013KT 20/18 A2997 RMK A01 T01960183  RH  092%=      5-min Rain = 0
KGO1 260403Z 17013KT 20/18 A2997 RMK A01 T01960183  RH  092%=      5-min Rain = 0
KGO1 260404Z 17014KT 20/18 A2997 RMK A01 T01950183  RH  092%=      5-min Rain = 0
KGO1 260405Z 16014KT 20/18 A2997 RMK A01 T01950182  RH  093%=      5-min Rain = 0
KGO1 260406Z 17014KT 20/18 A2997 RMK A01 T01950182  RH  092%=      5-min Rain = 0
KGO1 260407Z 16013KT 20/18 A2997 RMK A01 T01950182  RH  092%=      5-min Rain = 0
KGO1 260408Z 16013KT 19/18 A2997 RMK A01 T01940182  RH  092%=      5-min Rain = 0
KGO1 260409Z 16013KT 19/18 A2997 RMK A01 T01940182  RH  093%=      5-min Rain = 0
KGO1 260410Z 16013KT 19/18 A2997 RMK A01 T01940181  RH  093%=      5-min Rain = 0
KGO1 260411Z 16013KT 19/18 A2997 RMK A01 T01930181  RH  093%=      5-min Rain = 0
KGO1 260412Z 16014KT 19/18 A2997 RMK A01 T01930181  RH  093%=      5-min Rain = 0
KGO1 260413Z 16013KT 19/18 A2997 RMK A01 T01930181  RH  093%=      5-min Rain = 0
KGO1 260414Z 16013KT 19/18 A2997 RMK A01 T01930180  RH  093%=      5-min Rain = 0
KGO1 260415Z 17013KT 19/18 A2997 RMK A01 T01920180  RH  093%=      5-min Rain = 0
KGO1 260416Z 16013KT 19/18 A2997 RMK A01 T01920180  RH  093%=      5-min Rain = 0
KGO1 260417Z 16013KT 19/18 A2997 RMK A01 T01910179  RH  093%=      5-min Rain = 0
KGO1 260418Z 17012KT 19/18 A2997 RMK A01 T01910179  RH  093%=      5-min Rain = 0
KGO1 260419Z 16012KT 19/18 A2997 RMK A01 T01900178  RH  093%=      5-min Rain = 0
KGO1 260420Z 16012KT 19/18 A2997 RMK A01 T01900178  RH  093%=      5-min Rain = 0
KGO1 260421Z 17013KT 19/18 A2997 RMK A01 T01890178  RH  093%=      5-min Rain = 0
KGO1 260422Z 17012KT 19/18 A2997 RMK A01 T01880177  RH  093%=      5-min Rain = 0
KGO1 260423Z 16011KT 19/18 A2997 RMK A01 T01880177  RH  094%=      5-min Rain = 0
KGO1 260424Z 17011KT 19/18 A2997 RMK A01 T01880177  RH  094%=      5-min Rain = 0
KGO1 260425Z 17011KT 19/18 A2997 RMK A01 T01870177  RH  094%=      5-min Rain = 0
KGO1 260426Z 17011KT 19/18 A2997 RMK A01 T01870177  RH  094%=      5-min Rain = 0
KGO1 260427Z 17011KT 19/18 A2997 RMK A01 T01860176  RH  094%=      5-min Rain = 0
KGO1 260428Z 16011KT 19/18 A2997 RMK A01 T01860176  RH  094%=      5-min Rain = 0
KGO1 260429Z 16010KT 19/18 A2997 RMK A01 T01860176  RH  094%=      5-min Rain = 0
KGO1 260430Z 16012KT 19/18 A2997 RMK A01 T01860176  RH  094%=      5-min Rain = 0
KGO1 260431Z 16011KT 19/18 A2997 RMK A01 T01850175  RH  094%=      5-min Rain = 0
KGO1 260432Z 17011KT 19/18 A2997 RMK A01 T01850175  RH  094%=      5-min Rain = 0
KGO1 260433Z 17011KT 19/18 A2997 RMK A01 T01850175  RH  094%=      5-min Rain = 0
KGO1 260434Z 16011KT 19/17 A2997 RMK A01 T01850174  RH  094%=      5-min Rain = 0
KGO1 260435Z 16011KT 18/17 A2997 RMK A01 T01840174  RH  094%=      5-min Rain = 0
KGO1 260436Z 16011KT 18/17 A2997 RMK A01 T01840174  RH  094%=      5-min Rain = 0
KGO1 260437Z 16011KT 18/17 A2997 RMK A01 T01840174  RH  094%=      5-min Rain = 0
KGO1 260438Z 16011KT 18/17 A2997 RMK A01 T01840174  RH  094%=      5-min Rain = 0
KGO1 260439Z 16011KT 18/17 A2998 RMK A01 T01830174  RH  094%=      5-min Rain = 0
KGO1 260440Z 16012KT 18/17 A2998 RMK A01 T01830174  RH  094%=      5-min Rain = 0
KGO1 260441Z 16010KT 18/17 A2998 RMK A01 T01820173  RH  094%=      5-min Rain = 0
KGO1 260442Z 16011KT 18/17 A2998 RMK A01 T01820173  RH  094%=      5-min Rain = 0
KGO1 260443Z 16010KT 18/17 A2997 RMK A01 T01820173  RH  094%=      5-min Rain = 0
KGO1 260444Z 15010KT 18/17 A2997 RMK A01 T01820172  RH  094%=      5-min Rain = 0
KGO1 260445Z 15009KT 18/17 A2998 RMK A01 T01810172  RH  094%=      5-min Rain = 0
KGO1 260446Z 16010KT 18/17 A2998 RMK A01 T01810172  RH  094%=      5-min Rain = 0
KGO1 260447Z 15011KT 18/17 A2998 RMK A01 T01800172  RH  095%=      5-min Rain = 0
KGO1 260448Z 15010KT 18/17 A2998 RMK A01 T01800171  RH  094%=      5-min Rain = 0
KGO1 260449Z 15011KT 18/17 A2998 RMK A01 T01800171  RH  094%=      5-min Rain = 0
KGO1 260450Z 16011KT 18/17 A2998 RMK A01 T01800170  RH  094%=      5-min Rain = 0
KGO1 260451Z 16011KT 18/17 A2998 RMK A01 T01800170  RH  094%=      5-min Rain = 0
KGO1 260452Z 16010KT 18/17 A2998 RMK A01 T01800171  RH  094%=      5-min Rain = 0
KGO1 260453Z 16010KT 18/17 A2998 RMK A01 T01800170  RH  094%=      5-min Rain = 0
KGO1 260454Z 16010KT 18/17 A2998 RMK A01 T01790170  RH  094%=      5-min Rain = 0
KGO1 260455Z 16010KT 18/17 A2998 RMK A01 T01790170  RH  094%=      5-min Rain = 0
KGO1 260456Z 16010KT 18/17 A2998 RMK A01 T01790170  RH  094%=      5-min Rain = 0
KGO1 260457Z 16009KT 18/17 A2998 RMK A01 T01780169  RH  095%=      5-min Rain = 0
KGO1 260458Z 16010KT 18/17 A2998 RMK A01 T01780169  RH  095%=      5-min Rain = 0
KGO1 260459Z 16010KT 18/17 A2998 RMK A01 T01770169  RH  095%=      5-min Rain = 0

Page generated in 0.1238 seconds.